Time,TemperatureF,DewpointF,PressureIn,WindDirection,WindDirectionDegrees,WindSpeedMPH,WindSpeedGustMPH,Humidity,HourlyPrecipIn,Conditions,Clouds,dailyrainin,SoftwareType,DateUTC
2013-04-06 00:00:00,32.2,28.8,30.21,SE,141,0.0,0.0,87,0.00,,,0.00,Wunderground v.1.15,2013-04-06 04:00:00,
2013-04-06 00:05:00,32.2,28.8,30.21,SE,141,0.0,1.0,87,0.00,,,0.00,Wunderground v.1.15,2013-04-06 04:05:00,
2013-04-06 00:07:00,32.2,28.8,30.20,SE,144,1.0,1.0,87,0.00,,,0.00,Wunderground v.1.15,2013-04-06 04:07:00,
2013-04-06 00:10:00,32.3,28.9,30.20,SE,145,0.0,2.0,87,0.00,,,0.00,Wunderground v.1.15,2013-04-06 04:10:00,
2013-04-06 00:13:00,32.3,28.9,30.20,SSE,150,2.0,2.0,87,0.00,,,0.00,Wunderground v.1.15,2013-04-06 04:13:00,
2013-04-06 00:15:00,32.4,29.0,30.20,SSE,150,0.0,2.0,87,0.00,,,0.00,Wunderground v.1.15,2013-04-06 04:15:00,
2013-04-06 00:16:00,32.4,29.0,30.20,SSE,150,0.0,2.0,87,0.00,,,0.00,Wunderground v.1.15,2013-04-06 04:16:00,
2013-04-06 00:18:00,32.4,29.0,30.20,SSE,150,1.0,2.0,87,0.00,,,0.00,Wunderground v.1.15,2013-04-06 04:18:00,
2013-04-06 00:21:00,32.4,29.0,30.20,SSE,157,0.0,1.0,87,0.00,,,0.00,Wunderground v.1.15,2013-04-06 04:21:00,
2013-04-06 00:23:00,32.5,29.1,30.20,SSE,157,0.0,1.0,87,0.00,,,0.00,Wunderground v.1.15,2013-04-06 04:23:00,
2013-04-06 00:26:00,32.5,29.1,30.20,SSE,159,1.0,2.0,87,0.00,,,0.00,Wunderground v.1.15,2013-04-06 04:26:00,
2013-04-06 00:28:00,32.5,29.1,30.20,SSE,159,0.0,2.0,87,0.00,,,0.00,Wunderground v.1.15,2013-04-06 04:28:00,
2013-04-06 00:31:00,32.5,29.1,30.20,SSE,159,1.0,2.0,87,0.00,,,0.00,Wunderground v.1.15,2013-04-06 04:31:00,
2013-04-06 00:32:00,32.5,29.1,30.20,SSE,159,1.0,2.0,87,0.00,,,0.00,Wunderground v.1.15,2013-04-06 04:32:00,
2013-04-06 00:33:00,32.6,29.2,30.20,SSE,159,0.0,2.0,87,0.00,,,0.00,Wunderground v.1.15,2013-04-06 04:33:00,
2013-04-06 00:37:00,32.6,29.2,30.20,SSE,159,0.0,2.0,87,0.00,,,0.00,Wunderground v.1.15,2013-04-06 04:37:00,
2013-04-06 00:39:00,32.6,29.2,30.20,SSE,160,1.0,2.0,87,0.00,,,0.00,Wunderground v.1.15,2013-04-06 04:39:00,
2013-04-06 00:42:00,32.6,29.2,30.20,SSE,161,0.0,1.0,87,0.00,,,0.00,Wunderground v.1.15,2013-04-06 04:42:00,
2013-04-06 00:44:00,32.6,29.2,30.20,SSE,161,1.0,1.0,87,0.00,,,0.00,Wunderground v.1.15,2013-04-06 04:44:00,
2013-04-06 00:47:00,32.7,29.0,30.20,SE,141,0.0,3.0,86,0.00,,,0.00,Wunderground v.1.15,2013-04-06 04:47:00,
2013-04-06 00:49:00,32.7,29.0,30.19,SE,144,1.0,3.0,86,0.00,,,0.00,Wunderground v.1.15,2013-04-06 04:49:00,
2013-04-06 00:52:00,32.7,29.0,30.19,SE,145,0.0,1.0,86,0.00,,,0.00,Wunderground v.1.15,2013-04-06 04:52:00,
2013-04-06 00:54:00,32.8,29.1,30.19,SSE,153,2.0,2.0,86,0.00,,,0.00,Wunderground v.1.15,2013-04-06 04:54:00,
2013-04-06 00:55:00,32.7,29.0,30.19,SSE,156,3.0,3.0,86,0.00,,,0.00,Wunderground v.1.15,2013-04-06 04:55:00,
2013-04-06 00:58:00,32.8,29.1,30.19,SSE,159,1.0,3.0,86,0.00,,,0.00,Wunderground v.1.15,2013-04-06 04:58:00,
2013-04-06 00:59:00,32.8,29.1,30.19,SSE,161,1.0,3.0,86,0.00,,,0.00,Wunderground v.1.15,2013-04-06 04:59:00,
2013-04-06 01:00:00,32.8,29.1,30.19,SSE,161,1.0,3.0,86,0.00,,,0.00,Wunderground v.1.15,2013-04-06 05:00:00,
2013-04-06 01:03:00,32.9,29.2,30.19,SSE,161,2.0,3.0,86,0.00,,,0.00,Wunderground v.1.15,2013-04-06 05:03:00,
2013-04-06 01:06:00,32.9,29.2,30.19,SSE,162,3.0,3.0,86,0.00,,,0.00,Wunderground v.1.15,2013-04-06 05:06:00,
2013-04-06 01:10:00,33.0,29.3,30.19,SSE,163,2.0,2.0,86,0.00,,,0.00,Wunderground v.1.15,2013-04-06 05:10:00,
2013-04-06 01:12:00,33.0,29.3,30.19,SSE,163,0.0,2.0,86,0.00,,,0.00,Wunderground v.1.15,2013-04-06 05:12:00,
2013-04-06 01:15:00,33.1,29.4,30.19,SSE,163,0.0,2.0,86,0.00,,,0.00,Wunderground v.1.15,2013-04-06 05:15:00,
2013-04-06 01:16:00,33.1,29.4,30.19,SSE,163,1.0,2.0,86,0.00,,,0.00,Wunderground v.1.15,2013-04-06 05:16:00,
2013-04-06 01:19:00,33.1,29.1,30.19,SSE,156,0.0,2.0,85,0.00,,,0.00,Wunderground v.1.15,2013-04-06 05:19:00,
2013-04-06 01:21:00,33.1,29.1,30.19,SSE,156,0.0,1.0,85,0.00,,,0.00,Wunderground v.1.15,2013-04-06 05:21:00,
2013-04-06 01:22:00,33.1,29.1,30.20,SSE,156,1.0,1.0,85,0.00,,,0.00,Wunderground v.1.15,2013-04-06 05:22:00,
2013-04-06 01:23:00,33.2,29.2,30.20,SSE,156,0.0,1.0,85,0.00,,,0.00,Wunderground v.1.15,2013-04-06 05:23:00,
2013-04-06 01:26:00,33.2,29.2,30.20,SSE,156,0.0,1.0,85,0.00,,,0.00,Wunderground v.1.15,2013-04-06 05:26:00,
2013-04-06 01:28:00,33.2,29.2,30.20,SSE,159,2.0,2.0,85,0.00,,,0.00,Wunderground v.1.15,2013-04-06 05:28:00,
2013-04-06 01:29:00,33.2,29.2,30.20,SSE,160,1.0,2.0,85,0.00,,,0.00,Wunderground v.1.15,2013-04-06 05:29:00,
2013-04-06 01:33:00,33.2,29.2,30.20,SSE,160,0.0,0.0,85,0.00,,,0.00,Wunderground v.1.15,2013-04-06 05:33:00,
2013-04-06 01:35:00,33.2,28.9,30.20,SSE,160,1.0,1.0,84,0.00,,,0.00,Wunderground v.1.15,2013-04-06 05:35:00,
2013-04-06 01:36:00,33.2,28.9,30.20,SSE,160,0.0,1.0,84,0.00,,,0.00,Wunderground v.1.15,2013-04-06 05:36:00,
2013-04-06 01:39:00,33.3,29.0,30.20,SE,146,0.0,1.0,84,0.00,,,0.00,Wunderground v.1.15,2013-04-06 05:39:00,
2013-04-06 01:41:00,33.3,29.0,30.20,SSE,149,0.0,1.0,84,0.00,,,0.00,Wunderground v.1.15,2013-04-06 05:41:00,
2013-04-06 01:42:00,33.3,29.0,30.20,SSE,149,0.0,1.0,84,0.00,,,0.00,Wunderground v.1.15,2013-04-06 05:42:00,
2013-04-06 01:43:00,33.3,29.0,30.20,SSE,149,0.0,1.0,84,0.00,,,0.00,Wunderground v.1.15,2013-04-06 05:43:00,
2013-04-06 01:45:00,33.3,29.0,30.20,SSE,148,1.0,1.0,84,0.00,,,0.00,Wunderground v.1.15,2013-04-06 05:45:00,
2013-04-06 01:48:00,33.3,28.7,30.19,SSE,147,0.0,1.0,83,0.00,,,0.00,Wunderground v.1.15,2013-04-06 05:48:00,
2013-04-06 01:49:00,33.3,28.7,30.19,SE,140,0.0,1.0,83,0.00,,,0.00,Wunderground v.1.15,2013-04-06 05:49:00,
2013-04-06 01:50:00,33.3,28.7,30.19,SSE,161,2.0,2.0,83,0.00,,,0.00,Wunderground v.1.15,2013-04-06 05:50:00,
2013-04-06 01:54:00,33.3,28.7,30.20,SSE,161,0.0,2.0,83,0.00,,,0.00,Wunderground v.1.15,2013-04-06 05:54:00,
2013-04-06 01:55:00,33.3,28.7,30.20,SSE,161,1.0,2.0,83,0.00,,,0.00,Wunderground v.1.15,2013-04-06 05:55:00,
2013-04-06 01:56:00,33.4,28.8,30.19,SSE,161,0.0,2.0,83,0.00,,,0.00,Wunderground v.1.15,2013-04-06 05:56:00,
2013-04-06 01:59:00,33.4,28.8,30.20,SSE,161,0.0,2.0,83,0.00,,,0.00,Wunderground v.1.15,2013-04-06 05:59:00,
2013-04-06 02:00:00,33.4,28.8,30.20,SSE,161,0.0,0.0,83,0.00,,,0.00,Wunderground v.1.15,2013-04-06 06:00:00,
2013-04-06 02:01:00,33.4,28.8,30.20,SSE,161,0.0,0.0,83,0.00,,,0.00,Wunderground v.1.15,2013-04-06 06:01:00,
2013-04-06 02:02:00,33.4,28.8,30.20,SSE,161,1.0,1.0,83,0.00,,,0.00,Wunderground v.1.15,2013-04-06 06:02:00,
2013-04-06 02:06:00,33.4,28.5,30.20,SSE,161,0.0,1.0,82,0.00,,,0.00,Wunderground v.1.15,2013-04-06 06:06:00,
2013-04-06 02:07:00,33.4,28.5,30.20,SSE,161,0.0,1.0,82,0.00,,,0.00,Wunderground v.1.15,2013-04-06 06:07:00,
2013-04-06 02:12:00,33.4,28.5,30.20,SSE,160,0.0,1.0,82,0.00,,,0.00,Wunderground v.1.15,2013-04-06 06:12:00,
2013-04-06 02:13:00,33.4,28.5,30.20,SSE,160,0.0,1.0,82,0.00,,,0.00,Wunderground v.1.15,2013-04-06 06:13:00,
2013-04-06 02:14:00,33.4,28.5,30.20,SSE,160,0.0,1.0,82,0.00,,,0.00,Wunderground v.1.15,2013-04-06 06:14:00,
2013-04-06 02:15:00,33.4,28.5,30.19,SSE,159,0.0,1.0,82,0.00,,,0.00,Wunderground v.1.15,2013-04-06 06:15:00,
2013-04-06 02:20:00,33.5,28.6,30.19,SSE,163,0.0,0.0,82,0.00,,,0.00,Wunderground v.1.15,2013-04-06 06:20:00,
2013-04-06 02:22:00,33.5,28.6,30.19,SSE,163,0.0,2.0,82,0.00,,,0.00,Wunderground v.1.15,2013-04-06 06:22:00,
2013-04-06 02:23:00,33.5,28.6,30.19,SSE,163,1.0,2.0,82,0.00,,,0.00,Wunderground v.1.15,2013-04-06 06:23:00,
2013-04-06 02:28:00,33.5,28.6,30.19,SSE,163,0.0,2.0,82,0.00,,,0.00,Wunderground v.1.15,2013-04-06 06:28:00,
2013-04-06 02:29:00,33.5,28.6,30.19,SSE,163,1.0,2.0,82,0.00,,,0.00,Wunderground v.1.15,2013-04-06 06:29:00,
2013-04-06 02:30:00,33.6,28.7,30.20,SSE,163,0.0,0.0,82,0.00,,,0.00,Wunderground v.1.15,2013-04-06 06:30:00,
2013-04-06 02:31:00,33.6,28.7,30.19,SSE,163,0.0,0.0,82,0.00,,,0.00,Wunderground v.1.15,2013-04-06 06:31:00,
2013-04-06 02:35:00,33.6,28.7,30.19,SSE,163,0.0,0.0,82,0.00,,,0.00,Wunderground v.1.15,2013-04-06 06:35:00,
2013-04-06 02:36:00,33.6,28.7,30.19,SSE,163,1.0,1.0,82,0.00,,,0.00,Wunderground v.1.15,2013-04-06 06:36:00,
2013-04-06 02:38:00,33.7,28.8,30.19,SSE,163,1.0,1.0,82,0.00,,,0.00,Wunderground v.1.15,2013-04-06 06:38:00,
2013-04-06 02:40:00,33.7,28.8,30.19,SSE,163,0.0,0.0,82,0.00,,,0.00,Wunderground v.1.15,2013-04-06 06:40:00,
2013-04-06 02:41:00,33.7,28.8,30.19,SSE,163,1.0,1.0,82,0.00,,,0.00,Wunderground v.1.15,2013-04-06 06:41:00,
2013-04-06 02:44:00,33.7,28.8,30.19,SSE,163,0.0,1.0,82,0.00,,,0.00,Wunderground v.1.15,2013-04-06 06:44:00,
2013-04-06 02:47:00,33.7,28.8,30.19,SSE,163,0.0,1.0,82,0.00,,,0.00,Wunderground v.1.15,2013-04-06 06:47:00,
2013-04-06 02:48:00,33.7,28.5,30.19,SSE,163,1.0,1.0,81,0.00,,,0.00,Wunderground v.1.15,2013-04-06 06:48:00,
2013-04-06 02:50:00,33.7,28.5,30.19,SSE,163,0.0,0.0,81,0.00,,,0.00,Wunderground v.1.15,2013-04-06 06:50:00,
2013-04-06 02:51:00,33.7,28.5,30.19,SSE,163,0.0,0.0,81,0.00,,,0.00,Wunderground v.1.15,2013-04-06 06:51:00,
2013-04-06 02:54:00,33.7,28.5,30.19,SSE,161,0.0,1.0,81,0.00,,,0.00,Wunderground v.1.15,2013-04-06 06:54:00,
2013-04-06 02:55:00,33.7,28.5,30.19,SSE,160,1.0,1.0,81,0.00,,,0.00,Wunderground v.1.15,2013-04-06 06:55:00,
2013-04-06 02:56:00,33.7,28.5,30.19,SSE,159,0.0,1.0,81,0.00,,,0.00,Wunderground v.1.15,2013-04-06 06:56:00,
2013-04-06 03:00:00,33.7,28.5,30.19,SSE,161,1.0,1.0,81,0.00,,,0.00,Wunderground v.1.15,2013-04-06 07:00:00,
2013-04-06 03:01:00,33.7,28.5,30.19,SSE,162,2.0,2.0,81,0.00,,,0.00,Wunderground v.1.15,2013-04-06 07:01:00,
2013-04-06 03:02:00,33.7,28.5,30.19,SSE,161,0.0,2.0,81,0.00,,,0.00,Wunderground v.1.15,2013-04-06 07:02:00,
2013-04-06 03:05:00,33.7,28.5,30.19,SSE,161,0.0,2.0,81,0.00,,,0.00,Wunderground v.1.15,2013-04-06 07:05:00,
2013-04-06 03:06:00,33.7,28.5,30.19,SSE,161,1.0,2.0,81,0.00,,,0.00,Wunderground v.1.15,2013-04-06 07:06:00,
2013-04-06 03:07:00,33.7,28.5,30.19,SSE,161,0.0,2.0,81,0.00,,,0.00,Wunderground v.1.15,2013-04-06 07:07:00,
2013-04-06 03:10:00,33.7,28.5,30.19,SSE,161,0.0,1.0,81,0.00,,,0.00,Wunderground v.1.15,2013-04-06 07:10:00,
2013-04-06 03:11:00,33.7,28.5,30.19,SSE,161,0.0,1.0,81,0.00,,,0.00,Wunderground v.1.15,2013-04-06 07:11:00,
2013-04-06 03:13:00,33.7,28.5,30.19,SSE,161,0.0,1.0,81,0.00,,,0.00,Wunderground v.1.15,2013-04-06 07:13:00,
2013-04-06 03:14:00,33.7,28.5,30.19,SSE,161,0.0,1.0,81,0.00,,,0.00,Wunderground v.1.15,2013-04-06 07:14:00,
2013-04-06 03:16:00,33.8,28.6,30.19,SSE,161,0.0,1.0,81,0.00,,,0.00,Wunderground v.1.15,2013-04-06 07:16:00,
2013-04-06 03:18:00,33.8,28.6,30.19,SSE,161,0.0,1.0,81,0.00,,,0.00,Wunderground v.1.15,2013-04-06 07:18:00,
2013-04-06 03:19:00,33.8,28.6,30.19,SSE,161,0.0,1.0,81,0.00,,,0.00,Wunderground v.1.15,2013-04-06 07:19:00,
2013-04-06 03:21:00,33.8,28.6,30.19,SSE,161,2.0,2.0,81,0.00,,,0.00,Wunderground v.1.15,2013-04-06 07:21:00,
2013-04-06 03:22:00,33.8,28.6,30.19,SSE,161,0.0,2.0,81,0.00,,,0.00,Wunderground v.1.15,2013-04-06 07:22:00,
2013-04-06 03:24:00,33.8,28.3,30.19,SSE,161,1.0,2.0,80,0.00,,,0.00,Wunderground v.1.15,2013-04-06 07:24:00,
2013-04-06 03:25:00,33.8,28.3,30.19,SSE,161,0.0,2.0,80,0.00,,,0.00,Wunderground v.1.15,2013-04-06 07:25:00,
2013-04-06 03:26:00,33.8,28.3,30.19,SSE,161,1.0,2.0,80,0.00,,,0.00,Wunderground v.1.15,2013-04-06 07:26:00,
2013-04-06 03:28:00,33.9,28.4,30.19,SSE,161,0.0,2.0,80,0.00,,,0.00,Wunderground v.1.15,2013-04-06 07:28:00,
2013-04-06 03:30:00,33.9,28.7,30.19,SSE,161,0.0,0.0,81,0.00,,,0.00,Wunderground v.1.15,2013-04-06 07:30:00,
2013-04-06 03:31:00,33.9,28.7,30.19,SSE,161,0.0,0.0,81,0.00,,,0.00,Wunderground v.1.15,2013-04-06 07:31:00,
2013-04-06 03:33:00,33.9,28.4,30.20,SSE,161,0.0,0.0,80,0.00,,,0.00,Wunderground v.1.15,2013-04-06 07:33:00,
2013-04-06 03:35:00,33.9,28.4,30.20,SSE,161,0.0,1.0,80,0.00,,,0.00,Wunderground v.1.15,2013-04-06 07:35:00,
2013-04-06 03:36:00,33.9,28.4,30.20,SSE,161,0.0,1.0,80,0.00,,,0.00,Wunderground v.1.15,2013-04-06 07:36:00,
2013-04-06 03:37:00,33.9,28.4,30.20,SSE,161,0.0,1.0,80,0.00,,,0.00,Wunderground v.1.15,2013-04-06 07:37:00,
2013-04-06 03:38:00,33.9,28.4,30.20,SSE,161,0.0,1.0,80,0.00,,,0.00,Wunderground v.1.15,2013-04-06 07:38:00,
2013-04-06 03:41:00,33.9,28.4,30.19,SSE,161,0.0,1.0,80,0.00,,,0.00,Wunderground v.1.15,2013-04-06 07:41:00,
2013-04-06 03:42:00,33.9,28.4,30.19,SSE,161,0.0,1.0,80,0.00,,,0.00,Wunderground v.1.15,2013-04-06 07:42:00,
2013-04-06 03:43:00,34.0,28.5,30.19,SSE,161,0.0,1.0,80,0.00,,,0.00,Wunderground v.1.15,2013-04-06 07:43:00,
2013-04-06 03:45:00,34.0,28.5,30.19,SSE,161,0.0,1.0,80,0.00,,,0.00,Wunderground v.1.15,2013-04-06 07:45:00,
2013-04-06 03:46:00,34.0,28.5,30.19,SSE,161,1.0,1.0,80,0.00,,,0.00,Wunderground v.1.15,2013-04-06 07:46:00,
2013-04-06 03:47:00,34.0,28.5,30.19,SSE,161,0.0,1.0,80,0.00,,,0.00,Wunderground v.1.15,2013-04-06 07:47:00,
2013-04-06 03:48:00,34.0,28.5,30.19,SSE,161,0.0,1.0,80,0.00,,,0.00,Wunderground v.1.15,2013-04-06 07:48:00,
2013-04-06 03:50:00,34.0,28.5,30.19,SSE,161,0.0,0.0,80,0.00,,,0.00,Wunderground v.1.15,2013-04-06 07:50:00,
2013-04-06 03:51:00,34.0,28.5,30.19,SSE,161,1.0,1.0,80,0.00,,,0.00,Wunderground v.1.15,2013-04-06 07:51:00,
2013-04-06 03:52:00,34.0,28.5,30.19,SSE,161,0.0,1.0,80,0.00,,,0.00,Wunderground v.1.15,2013-04-06 07:52:00,
2013-04-06 03:53:00,34.0,28.5,30.19,SSE,161,0.0,1.0,80,0.00,,,0.00,Wunderground v.1.15,2013-04-06 07:53:00,
2013-04-06 03:55:00,34.0,28.5,30.19,SSE,161,0.0,1.0,80,0.00,,,0.00,Wunderground v.1.15,2013-04-06 07:55:00,
2013-04-06 03:57:00,33.9,28.4,30.19,SSE,161,1.0,1.0,80,0.00,,,0.00,Wunderground v.1.15,2013-04-06 07:57:00,
2013-04-06 03:58:00,34.0,28.5,30.19,SSE,161,2.0,2.0,80,0.00,,,0.00,Wunderground v.1.15,2013-04-06 07:58:00,
2013-04-06 03:59:00,33.9,28.4,30.19,SSE,161,0.0,2.0,80,0.00,,,0.00,Wunderground v.1.15,2013-04-06 07:59:00,
2013-04-06 04:00:00,33.9,28.1,30.19,SSE,161,2.0,2.0,79,0.00,,,0.00,Wunderground v.1.15,2013-04-06 08:00:00,
2013-04-06 04:02:00,33.9,28.1,30.19,SSE,162,0.0,2.0,79,0.00,,,0.00,Wunderground v.1.15,2013-04-06 08:02:00,
2013-04-06 04:03:00,33.9,28.1,30.19,SSE,162,0.0,2.0,79,0.00,,,0.00,Wunderground v.1.15,2013-04-06 08:03:00,
2013-04-06 04:04:00,33.9,28.1,30.19,SSE,162,0.0,2.0,79,0.00,,,0.00,Wunderground v.1.15,2013-04-06 08:04:00,
2013-04-06 04:06:00,33.8,28.0,30.19,SSE,162,1.0,2.0,79,0.00,,,0.00,Wunderground v.1.15,2013-04-06 08:06:00,
2013-04-06 04:07:00,33.8,28.0,30.19,SSE,161,0.0,2.0,79,0.00,,,0.00,Wunderground v.1.15,2013-04-06 08:07:00,
2013-04-06 04:08:00,33.8,28.3,30.19,SSE,162,0.0,2.0,80,0.00,,,0.00,Wunderground v.1.15,2013-04-06 08:08:00,
2013-04-06 04:09:00,33.8,28.3,30.18,SSE,162,2.0,2.0,80,0.00,,,0.00,Wunderground v.1.15,2013-04-06 08:09:00,
2013-04-06 04:11:00,33.8,28.3,30.18,SSE,161,1.0,2.0,80,0.00,,,0.00,Wunderground v.1.15,2013-04-06 08:11:00,
2013-04-06 04:12:00,33.7,28.2,30.18,SSE,161,0.0,2.0,80,0.00,,,0.00,Wunderground v.1.15,2013-04-06 08:12:00,
2013-04-06 04:13:00,33.7,28.2,30.18,SSE,163,0.0,3.0,80,0.00,,,0.00,Wunderground v.1.15,2013-04-06 08:13:00,
2013-04-06 04:14:00,33.7,28.2,30.18,SSE,163,0.0,3.0,80,0.00,,,0.00,Wunderground v.1.15,2013-04-06 08:14:00,
2013-04-06 04:17:00,33.7,28.2,30.18,SSE,163,2.0,3.0,80,0.00,,,0.00,Wunderground v.1.15,2013-04-06 08:17:00,
2013-04-06 04:18:00,33.7,28.2,30.18,SSE,161,1.0,3.0,80,0.00,,,0.00,Wunderground v.1.15,2013-04-06 08:18:00,
2013-04-06 04:19:00,33.7,28.2,30.18,SSE,162,1.0,3.0,80,0.00,,,0.00,Wunderground v.1.15,2013-04-06 08:19:00,
2013-04-06 04:22:00,33.6,28.1,30.18,SSE,161,2.0,2.0,80,0.00,,,0.00,Wunderground v.1.15,2013-04-06 08:22:00,
2013-04-06 04:24:00,33.6,28.1,30.18,SSE,160,1.0,2.0,80,0.00,,,0.00,Wunderground v.1.15,2013-04-06 08:24:00,
2013-04-06 04:27:00,33.6,28.1,30.18,SSE,158,1.0,3.0,80,0.00,,,0.00,Wunderground v.1.15,2013-04-06 08:27:00,
2013-04-06 04:28:00,33.6,28.1,30.18,SSE,158,2.0,3.0,80,0.00,,,0.00,Wunderground v.1.15,2013-04-06 08:28:00,
2013-04-06 04:29:00,33.6,28.1,30.18,SSE,159,3.0,3.0,80,0.00,,,0.00,Wunderground v.1.15,2013-04-06 08:29:00,
2013-04-06 04:32:00,33.6,28.1,30.17,SSE,162,2.0,4.0,80,0.00,,,0.00,Wunderground v.1.15,2013-04-06 08:32:00,
2013-04-06 04:33:00,33.6,28.1,30.17,SSE,163,3.0,4.0,80,0.00,,,0.00,Wunderground v.1.15,2013-04-06 08:33:00,
2013-04-06 04:34:00,33.6,28.1,30.17,SSE,159,2.0,4.0,80,0.00,,,0.00,Wunderground v.1.15,2013-04-06 08:34:00,
2013-04-06 04:38:00,33.7,28.2,30.17,SSE,164,2.0,4.0,80,0.00,,,0.00,Wunderground v.1.15,2013-04-06 08:38:00,
2013-04-06 04:39:00,33.8,28.3,30.17,SSE,160,5.0,5.0,80,0.00,,,0.00,Wunderground v.1.15,2013-04-06 08:39:00,
2013-04-06 04:40:00,33.8,28.3,30.17,SSE,161,3.0,5.0,80,0.00,,,0.00,Wunderground v.1.15,2013-04-06 08:40:00,
2013-04-06 04:43:00,33.9,28.1,30.16,South,171,4.0,5.0,79,0.00,,,0.00,Wunderground v.1.15,2013-04-06 08:43:00,
2013-04-06 04:44:00,33.9,28.1,30.16,South,169,3.0,5.0,79,0.00,,,0.00,Wunderground v.1.15,2013-04-06 08:44:00,
2013-04-06 04:46:00,34.0,28.2,30.16,South,171,3.0,6.0,79,0.00,,,0.00,Wunderground v.1.15,2013-04-06 08:46:00,
2013-04-06 04:48:00,34.1,28.3,30.16,SSE,165,4.0,6.0,79,0.00,,,0.00,Wunderground v.1.15,2013-04-06 08:48:00,
2013-04-06 04:49:00,34.1,28.3,30.16,SSE,155,5.0,7.0,79,0.00,,,0.00,Wunderground v.1.15,2013-04-06 08:49:00,
2013-04-06 04:50:00,34.1,28.3,30.16,SSE,148,4.0,4.0,79,0.00,,,0.00,Wunderground v.1.15,2013-04-06 08:50:00,
2013-04-06 04:51:00,34.2,28.4,30.16,SSE,159,3.0,4.0,79,0.00,,,0.00,Wunderground v.1.15,2013-04-06 08:51:00,
2013-04-06 04:53:00,34.3,28.2,30.16,SSE,163,2.0,5.0,78,0.00,,,0.00,Wunderground v.1.15,2013-04-06 08:53:00,
2013-04-06 04:54:00,34.3,28.2,30.16,SSE,162,1.0,5.0,78,0.00,,,0.00,Wunderground v.1.15,2013-04-06 08:54:00,
2013-04-06 04:55:00,34.3,28.2,30.16,SSE,157,4.0,5.0,78,0.00,,,0.00,Wunderground v.1.15,2013-04-06 08:55:00,
2013-04-06 04:58:00,34.4,28.2,30.16,SSE,165,1.0,5.0,78,0.00,,,0.00,Wunderground v.1.15,2013-04-06 08:58:00,
2013-04-06 04:59:00,34.4,28.2,30.16,SSE,165,4.0,5.0,78,0.00,,,0.00,Wunderground v.1.15,2013-04-06 08:59:00,
2013-04-06 05:00:00,34.4,28.2,30.16,South,171,1.0,4.0,78,0.00,,,0.00,Wunderground v.1.15,2013-04-06 09:00:00,
2013-04-06 05:03:00,34.4,28.2,30.16,SSE,152,2.0,6.0,78,0.00,,,0.00,Wunderground v.1.15,2013-04-06 09:03:00,
2013-04-06 05:05:00,34.4,27.9,30.16,SSE,160,3.0,6.0,77,0.00,,,0.00,Wunderground v.1.15,2013-04-06 09:05:00,
2013-04-06 05:08:00,34.4,27.9,30.15,SSE,155,4.0,6.0,77,0.00,,,0.00,Wunderground v.1.15,2013-04-06 09:08:00,
2013-04-06 05:10:00,34.4,27.9,30.15,SE,142,4.0,4.0,77,0.00,,,0.00,Wunderground v.1.15,2013-04-06 09:10:00,
2013-04-06 05:11:00,34.4,27.9,30.15,SSE,158,3.0,4.0,77,0.00,,,0.00,Wunderground v.1.15,2013-04-06 09:11:00,
2013-04-06 05:13:00,34.4,27.9,30.15,SSE,168,3.0,5.0,77,0.00,,,0.00,Wunderground v.1.15,2013-04-06 09:13:00,
2013-04-06 05:15:00,34.4,27.6,30.15,SSE,164,4.0,6.0,76,0.00,,,0.00,Wunderground v.1.15,2013-04-06 09:15:00,
2013-04-06 05:16:00,34.4,27.6,30.15,SSE,155,3.0,6.0,76,0.00,,,0.00,Wunderground v.1.15,2013-04-06 09:16:00,
2013-04-06 05:17:00,34.4,27.6,30.15,SSE,164,4.0,9.0,76,0.00,,,0.00,Wunderground v.1.15,2013-04-06 09:17:00,
2013-04-06 05:18:00,34.4,27.6,30.15,SSE,162,3.0,9.0,76,0.00,,,0.00,Wunderground v.1.15,2013-04-06 09:18:00,
2013-04-06 05:21:00,34.4,27.6,30.15,SSE,151,4.0,6.0,76,0.00,,,0.00,Wunderground v.1.15,2013-04-06 09:21:00,
2013-04-06 05:22:00,34.4,27.6,30.15,SSE,155,5.0,6.0,76,0.00,,,0.00,Wunderground v.1.15,2013-04-06 09:22:00,
2013-04-06 05:25:00,34.4,27.6,30.15,SSE,158,5.0,6.0,76,0.00,,,0.00,Wunderground v.1.15,2013-04-06 09:25:00,
2013-04-06 05:27:00,34.5,27.7,30.15,South,171,5.0,6.0,76,0.00,,,0.00,Wunderground v.1.15,2013-04-06 09:27:00,
2013-04-06 05:29:00,34.6,27.8,30.15,SSE,163,4.0,6.0,76,0.00,,,0.00,Wunderground v.1.15,2013-04-06 09:29:00,
2013-04-06 05:30:00,34.7,27.9,30.15,SSE,165,3.0,4.0,76,0.00,,,0.00,Wunderground v.1.15,2013-04-06 09:30:00,
2013-04-06 05:32:00,34.8,28.0,30.15,ESE,107,6.0,6.0,76,0.00,,,0.00,Wunderground v.1.15,2013-04-06 09:32:00,
2013-04-06 05:35:00,34.9,28.1,30.15,SSE,160,5.0,6.0,76,0.00,,,0.00,Wunderground v.1.15,2013-04-06 09:35:00,
2013-04-06 05:37:00,35.0,27.9,30.15,SSE,159,5.0,6.0,75,0.00,,,0.00,Wunderground v.1.15,2013-04-06 09:37:00,
2013-04-06 05:40:00,35.1,28.0,30.15,SSE,163,4.0,5.0,75,0.00,,,0.00,Wunderground v.1.15,2013-04-06 09:40:00,
2013-04-06 05:42:00,35.1,28.0,30.15,SSE,148,4.0,7.0,75,0.00,,,0.00,Wunderground v.1.15,2013-04-06 09:42:00,
2013-04-06 05:43:00,35.2,27.7,30.15,SSE,148,3.0,7.0,74,0.00,,,0.00,Wunderground v.1.15,2013-04-06 09:43:00,
2013-04-06 05:45:00,35.2,27.7,30.15,SSE,156,4.0,7.0,74,0.00,,,0.00,Wunderground v.1.15,2013-04-06 09:45:00,
2013-04-06 05:46:00,35.2,27.7,30.15,South,169,4.0,7.0,74,0.00,,,0.00,Wunderground v.1.15,2013-04-06 09:46:00,
2013-04-06 05:47:00,35.3,27.8,30.14,South,170,3.0,7.0,74,0.00,,,0.00,Wunderground v.1.15,2013-04-06 09:47:00,
2013-04-06 05:48:00,35.3,27.8,30.14,SSE,149,5.0,7.0,74,0.00,,,0.00,Wunderground v.1.15,2013-04-06 09:48:00,
2013-04-06 05:50:00,35.4,27.9,30.14,South,191,3.0,4.0,74,0.00,,,0.00,Wunderground v.1.15,2013-04-06 09:50:00,
2013-04-06 05:51:00,35.4,27.9,30.15,SSE,167,3.0,4.0,74,0.00,,,0.00,Wunderground v.1.15,2013-04-06 09:51:00,
2013-04-06 05:52:00,35.5,27.7,30.15,South,180,4.0,6.0,73,0.00,,,0.00,Wunderground v.1.15,2013-04-06 09:52:00,
2013-04-06 05:53:00,35.5,27.7,30.15,SE,131,5.0,6.0,73,0.00,,,0.00,Wunderground v.1.15,2013-04-06 09:53:00,
2013-04-06 05:55:00,35.5,27.7,30.15,SSE,156,5.0,7.0,73,0.00,,,0.00,Wunderground v.1.15,2013-04-06 09:55:00,
2013-04-06 05:57:00,35.6,27.8,30.15,South,175,5.0,7.0,73,0.00,,,0.00,Wunderground v.1.15,2013-04-06 09:57:00,
2013-04-06 05:58:00,35.6,27.8,30.15,SSE,156,4.0,7.0,73,0.00,,,0.00,Wunderground v.1.15,2013-04-06 09:58:00,
2013-04-06 06:00:00,35.6,27.5,30.15,SSE,161,7.0,7.0,72,0.00,,,0.00,Wunderground v.1.15,2013-04-06 10:00:00,
2013-04-06 06:01:00,35.6,27.5,30.15,SSE,159,4.0,7.0,72,0.00,,,0.00,Wunderground v.1.15,2013-04-06 10:01:00,
2013-04-06 06:02:00,35.7,27.6,30.15,SSE,155,5.0,7.0,72,0.00,,,0.00,Wunderground v.1.15,2013-04-06 10:02:00,
2013-04-06 06:03:00,35.7,27.6,30.15,SSE,157,4.0,7.0,72,0.00,,,0.00,Wunderground v.1.15,2013-04-06 10:03:00,
2013-04-06 06:05:00,35.8,27.7,30.14,South,186,6.0,7.0,72,0.00,,,0.00,Wunderground v.1.15,2013-04-06 10:05:00,
2013-04-06 06:07:00,35.8,27.7,30.14,SSE,168,5.0,9.0,72,0.00,,,0.00,Wunderground v.1.15,2013-04-06 10:07:00,
2013-04-06 06:08:00,35.9,27.7,30.14,SSE,157,6.0,9.0,72,0.00,,,0.00,Wunderground v.1.15,2013-04-06 10:08:00,
2013-04-06 06:10:00,35.9,27.4,30.14,ESE,121,5.0,10.0,71,0.00,,,0.00,Wunderground v.1.15,2013-04-06 10:10:00,
2013-04-06 06:12:00,36.0,27.5,30.13,South,171,3.0,10.0,71,0.00,,,0.00,Wunderground v.1.15,2013-04-06 10:12:00,
2013-04-06 06:13:00,36.0,27.5,30.13,SSE,156,2.0,10.0,71,0.00,,,0.00,Wunderground v.1.15,2013-04-06 10:13:00,
2013-04-06 06:15:00,36.0,27.5,30.13,SSE,165,5.0,10.0,71,0.00,,,0.00,Wunderground v.1.15,2013-04-06 10:15:00,
2013-04-06 06:17:00,36.1,27.6,30.13,SSE,155,5.0,10.0,71,0.00,,,0.00,Wunderground v.1.15,2013-04-06 10:17:00,
2013-04-06 06:18:00,36.1,27.6,30.13,SSE,164,5.0,10.0,71,0.00,,,0.00,Wunderground v.1.15,2013-04-06 10:18:00,
2013-04-06 06:19:00,36.2,27.4,30.13,SE,144,0.0,10.0,70,0.00,,,0.00,Wunderground v.1.15,2013-04-06 10:19:00,
2013-04-06 06:20:00,36.2,27.4,30.13,SSE,161,5.0,7.0,70,0.00,,,0.00,Wunderground v.1.15,2013-04-06 10:20:00,
2013-04-06 06:22:00,36.3,27.4,30.13,SSE,160,5.0,7.0,70,0.00,,,0.00,Wunderground v.1.15,2013-04-06 10:22:00,
2013-04-06 06:23:00,36.3,27.4,30.13,SSE,153,5.0,7.0,70,0.00,,,0.00,Wunderground v.1.15,2013-04-06 10:23:00,
2013-04-06 06:24:00,36.4,27.5,30.13,SSE,167,4.0,7.0,70,0.00,,,0.00,Wunderground v.1.15,2013-04-06 10:24:00,
2013-04-06 06:25:00,36.4,27.5,30.13,SSE,165,1.0,7.0,70,0.00,,,0.00,Wunderground v.1.15,2013-04-06 10:25:00,
2013-04-06 06:28:00,36.5,27.3,30.14,SSE,163,4.0,8.0,69,0.00,,,0.00,Wunderground v.1.15,2013-04-06 10:28:00,
2013-04-06 06:29:00,36.5,27.3,30.13,SSE,155,7.0,8.0,69,0.00,,,0.00,Wunderground v.1.15,2013-04-06 10:29:00,
2013-04-06 06:30:00,36.6,27.4,30.13,SSE,156,8.0,8.0,69,0.00,,,0.00,Wunderground v.1.15,2013-04-06 10:30:00,
2013-04-06 06:33:00,36.7,27.5,30.13,SSE,152,7.0,8.0,69,0.00,,,0.00,Wunderground v.1.15,2013-04-06 10:33:00,
2013-04-06 06:34:00,36.7,27.5,30.13,South,173,4.0,10.0,69,0.00,,,0.00,Wunderground v.1.15,2013-04-06 10:34:00,
2013-04-06 06:36:00,36.8,27.6,30.13,SSE,161,7.0,10.0,69,0.00,,,0.00,Wunderground v.1.15,2013-04-06 10:36:00,
2013-04-06 06:39:00,36.8,27.2,30.13,SSE,148,6.0,10.0,68,0.00,,,0.00,Wunderground v.1.15,2013-04-06 10:39:00,
2013-04-06 06:40:00,36.9,27.3,30.13,South,169,5.0,6.0,68,0.00,,,0.00,Wunderground v.1.15,2013-04-06 10:40:00,
2013-04-06 06:42:00,36.9,27.3,30.13,South,175,3.0,6.0,68,0.00,,,0.00,Wunderground v.1.15,2013-04-06 10:42:00,
2013-04-06 06:44:00,37.0,27.4,30.13,SSE,164,6.0,9.0,68,0.00,,,0.00,Wunderground v.1.15,2013-04-06 10:44:00,
2013-04-06 06:46:00,37.1,27.5,30.13,SE,136,6.0,9.0,68,0.00,,,0.00,Wunderground v.1.15,2013-04-06 10:46:00,
2013-04-06 06:47:00,37.1,27.5,30.13,South,171,4.0,9.0,68,0.00,,,0.00,Wunderground v.1.15,2013-04-06 10:47:00,
2013-04-06 06:49:00,37.1,27.2,30.13,SSE,156,5.0,9.0,67,0.00,,,0.00,Wunderground v.1.15,2013-04-06 10:49:00,
2013-04-06 06:50:00,37.1,27.2,30.13,SSE,162,5.0,5.0,67,0.00,,,0.00,Wunderground v.1.15,2013-04-06 10:50:00,
2013-04-06 06:52:00,37.1,27.2,30.13,South,188,5.0,7.0,67,0.00,,,0.00,Wunderground v.1.15,2013-04-06 10:52:00,
2013-04-06 06:55:00,37.2,27.2,30.13,SSE,157,6.0,9.0,67,0.00,,,0.00,Wunderground v.1.15,2013-04-06 10:55:00,
2013-04-06 06:57:00,37.3,27.3,30.13,SSE,155,3.0,9.0,67,0.00,,,0.00,Wunderground v.1.15,2013-04-06 10:57:00,
2013-04-06 06:58:00,37.3,27.3,30.13,SSE,161,4.0,9.0,67,0.00,,,0.00,Wunderground v.1.15,2013-04-06 10:58:00,
2013-04-06 07:00:00,37.3,27.3,30.13,SSE,163,4.0,7.0,67,0.00,,,0.00,Wunderground v.1.15,2013-04-06 11:00:00,
2013-04-06 07:01:00,37.3,27.0,30.12,South,170,5.0,8.0,66,0.00,,,0.00,Wunderground v.1.15,2013-04-06 11:01:00,
2013-04-06 07:02:00,37.3,27.0,30.12,ESE,113,4.0,8.0,66,0.00,,,0.00,Wunderground v.1.15,2013-04-06 11:02:00,
2013-04-06 07:03:00,37.3,27.0,30.12,SSE,160,6.0,8.0,66,0.00,,,0.00,Wunderground v.1.15,2013-04-06 11:03:00,
2013-04-06 07:05:00,37.4,27.1,30.12,SSE,165,8.0,8.0,66,0.00,,,0.00,Wunderground v.1.15,2013-04-06 11:05:00,
2013-04-06 07:07:00,37.4,27.1,30.12,SSE,165,5.0,8.0,66,0.00,,,0.00,Wunderground v.1.15,2013-04-06 11:07:00,
2013-04-06 07:08:00,37.4,27.1,30.12,SSE,165,5.0,10.0,66,0.00,,,0.00,Wunderground v.1.15,2013-04-06 11:08:00,
2013-04-06 07:11:00,37.5,27.2,30.12,South,181,6.0,12.0,66,0.00,,,0.00,Wunderground v.1.15,2013-04-06 11:11:00,
2013-04-06 07:13:00,37.5,27.2,30.12,SSE,161,6.0,12.0,66,0.00,,,0.00,Wunderground v.1.15,2013-04-06 11:13:00,
2013-04-06 07:15:00,37.5,27.2,30.12,South,169,5.0,12.0,66,0.00,,,0.00,Wunderground v.1.15,2013-04-06 11:15:00,
2013-04-06 07:16:00,37.5,27.2,30.12,SSE,163,11.0,12.0,66,0.00,,,0.00,Wunderground v.1.15,2013-04-06 11:16:00,
2013-04-06 07:18:00,37.5,27.2,30.12,SSE,158,0.0,12.0,66,0.00,,,0.00,Wunderground v.1.15,2013-04-06 11:18:00,
2013-04-06 07:19:00,37.5,27.2,30.12,South,187,6.0,12.0,66,0.00,,,0.00,Wunderground v.1.15,2013-04-06 11:19:00,
2013-04-06 07:20:00,37.6,27.3,30.12,South,172,4.0,8.0,66,0.00,,,0.00,Wunderground v.1.15,2013-04-06 11:20:00,
2013-04-06 07:23:00,37.6,26.9,30.12,SSE,163,6.0,9.0,65,0.00,,,0.00,Wunderground v.1.15,2013-04-06 11:23:00,
2013-04-06 07:24:00,37.6,26.9,30.12,SSE,167,8.0,10.0,65,0.00,,,0.00,Wunderground v.1.15,2013-04-06 11:24:00,
2013-04-06 07:26:00,37.6,26.9,30.12,SSE,151,1.0,10.0,65,0.00,,,0.00,Wunderground v.1.15,2013-04-06 11:26:00,
2013-04-06 07:28:00,37.7,27.0,30.13,SSE,166,4.0,10.0,65,0.00,,,0.00,Wunderground v.1.15,2013-04-06 11:28:00,
2013-04-06 07:29:00,37.7,27.0,30.13,SSE,168,4.0,10.0,65,0.00,,,0.00,Wunderground v.1.15,2013-04-06 11:29:00,
2013-04-06 07:32:00,37.7,27.0,30.13,South,182,3.0,8.0,65,0.00,,,0.00,Wunderground v.1.15,2013-04-06 11:32:00,
2013-04-06 07:33:00,37.7,27.0,30.13,SE,128,3.0,10.0,65,0.00,,,0.00,Wunderground v.1.15,2013-04-06 11:33:00,
2013-04-06 07:34:00,37.7,27.0,30.13,SSE,166,3.0,10.0,65,0.00,,,0.00,Wunderground v.1.15,2013-04-06 11:34:00,
2013-04-06 07:37:00,37.8,27.1,30.13,SSE,167,11.0,11.0,65,0.00,,,0.00,Wunderground v.1.15,2013-04-06 11:37:00,
2013-04-06 07:38:00,37.8,27.1,30.13,SSE,153,2.0,11.0,65,0.00,,,0.00,Wunderground v.1.15,2013-04-06 11:38:00,
2013-04-06 07:39:00,37.8,27.1,30.13,South,182,8.0,11.0,65,0.00,,,0.00,Wunderground v.1.15,2013-04-06 11:39:00,
2013-04-06 07:40:00,37.8,27.1,30.13,South,185,9.0,10.0,65,0.00,,,0.00,Wunderground v.1.15,2013-04-06 11:40:00,
2013-04-06 07:42:00,37.8,27.1,30.13,SSE,148,3.0,11.0,65,0.00,,,0.00,Wunderground v.1.15,2013-04-06 11:42:00,
2013-04-06 07:43:00,37.8,27.1,30.13,SSE,155,4.0,11.0,65,0.00,,,0.00,Wunderground v.1.15,2013-04-06 11:43:00,
2013-04-06 07:44:00,37.8,27.1,30.13,SSE,161,4.0,11.0,65,0.00,,,0.00,Wunderground v.1.15,2013-04-06 11:44:00,
2013-04-06 07:45:00,37.8,27.1,30.13,SE,144,8.0,11.0,65,0.00,,,0.00,Wunderground v.1.15,2013-04-06 11:45:00,
2013-04-06 07:47:00,37.9,27.2,30.13,SSE,167,7.0,11.0,65,0.00,,,0.00,Wunderground v.1.15,2013-04-06 11:47:00,
2013-04-06 07:48:00,37.9,27.2,30.13,SE,146,3.0,11.0,65,0.00,,,0.00,Wunderground v.1.15,2013-04-06 11:48:00,
2013-04-06 07:49:00,37.9,27.2,30.13,SSE,149,5.0,11.0,65,0.00,,,0.00,Wunderground v.1.15,2013-04-06 11:49:00,
2013-04-06 07:50:00,37.9,27.2,30.13,SSE,156,6.0,7.0,65,0.00,,,0.00,Wunderground v.1.15,2013-04-06 11:50:00,
2013-04-06 07:53:00,38.0,27.3,30.13,SSE,157,7.0,9.0,65,0.00,,,0.00,Wunderground v.1.15,2013-04-06 11:53:00,
2013-04-06 07:54:00,38.0,27.3,30.13,SSE,159,3.0,9.0,65,0.00,,,0.00,Wunderground v.1.15,2013-04-06 11:54:00,
2013-04-06 07:56:00,38.0,27.3,30.13,SSE,148,6.0,11.0,65,0.00,,,0.00,Wunderground v.1.15,2013-04-06 11:56:00,
2013-04-06 07:58:00,38.1,27.4,30.14,SSE,155,6.0,11.0,65,0.00,,,0.00,Wunderground v.1.15,2013-04-06 11:58:00,
2013-04-06 07:59:00,38.1,27.0,30.13,SSE,165,12.0,12.0,64,0.00,,,0.00,Wunderground v.1.15,2013-04-06 11:59:00,
2013-04-06 08:00:00,38.2,27.5,30.13,SSE,157,7.0,10.0,65,0.00,,,0.00,Wunderground v.1.15,2013-04-06 12:00:00,
2013-04-06 08:01:00,38.2,27.5,30.13,South,184,4.0,10.0,65,0.00,,,0.00,Wunderground v.1.15,2013-04-06 12:01:00,
2013-04-06 08:03:00,38.2,27.1,30.13,SSE,153,6.0,11.0,64,0.00,,,0.00,Wunderground v.1.15,2013-04-06 12:03:00,
2013-04-06 08:05:00,38.2,27.5,30.14,SSE,167,6.0,11.0,65,0.00,,,0.00,Wunderground v.1.15,2013-04-06 12:05:00,
2013-04-06 08:06:00,38.3,27.2,30.13,SSE,155,7.0,11.0,64,0.00,,,0.00,Wunderground v.1.15,2013-04-06 12:06:00,
2013-04-06 08:09:00,38.3,27.6,30.13,South,169,5.0,11.0,65,0.00,,,0.00,Wunderground v.1.15,2013-04-06 12:09:00,
2013-04-06 08:10:00,38.4,27.7,30.13,SSE,164,5.0,8.0,65,0.00,,,0.00,Wunderground v.1.15,2013-04-06 12:10:00,
2013-04-06 08:11:00,38.4,27.3,30.13,SSE,168,4.0,8.0,64,0.00,,,0.00,Wunderground v.1.15,2013-04-06 12:11:00,
2013-04-06 08:12:00,38.4,27.7,30.13,SSE,166,6.0,8.0,65,0.00,,,0.00,Wunderground v.1.15,2013-04-06 12:12:00,
2013-04-06 08:14:00,38.4,27.7,30.14,South,172,5.0,10.0,65,0.00,,,0.00,Wunderground v.1.15,2013-04-06 12:14:00,
2013-04-06 08:16:00,38.5,27.4,30.13,SSE,150,5.0,10.0,64,0.00,,,0.00,Wunderground v.1.15,2013-04-06 12:16:00,
2013-04-06 08:17:00,38.5,27.4,30.13,SSE,155,5.0,10.0,64,0.00,,,0.00,Wunderground v.1.15,2013-04-06 12:17:00,
2013-04-06 08:19:00,38.6,27.5,30.13,SSE,159,6.0,10.0,64,0.00,,,0.00,Wunderground v.1.15,2013-04-06 12:19:00,
2013-04-06 08:21:00,38.7,27.6,30.13,South,170,7.0,12.0,64,0.00,,,0.00,Wunderground v.1.15,2013-04-06 12:21:00,
2013-04-06 08:23:00,38.8,27.7,30.13,SE,144,6.0,12.0,64,0.00,,,0.00,Wunderground v.1.15,2013-04-06 12:23:00,
2013-04-06 08:24:00,38.8,27.7,30.13,SSE,168,7.0,12.0,64,0.00,,,0.00,Wunderground v.1.15,2013-04-06 12:24:00,
2013-04-06 08:27:00,38.9,27.8,30.13,SSE,151,7.0,12.0,64,0.00,,,0.00,Wunderground v.1.15,2013-04-06 12:27:00,
2013-04-06 08:28:00,38.9,27.8,30.13,SSE,161,9.0,12.0,64,0.00,,,0.00,Wunderground v.1.15,2013-04-06 12:28:00,
2013-04-06 08:29:00,39.0,27.8,30.13,SSE,159,8.0,12.0,64,0.00,,,0.00,Wunderground v.1.15,2013-04-06 12:29:00,
2013-04-06 08:32:00,39.1,27.9,30.13,SSE,158,9.0,12.0,64,0.00,,,0.00,Wunderground v.1.15,2013-04-06 12:32:00,
2013-04-06 08:33:00,39.1,27.9,30.13,SSE,150,3.0,12.0,64,0.00,,,0.00,Wunderground v.1.15,2013-04-06 12:33:00,
2013-04-06 08:34:00,39.2,27.7,30.13,SSE,165,7.0,12.0,63,0.00,,,0.00,Wunderground v.1.15,2013-04-06 12:34:00,
2013-04-06 08:35:00,39.2,27.7,30.13,South,171,6.0,12.0,63,0.00,,,0.00,Wunderground v.1.15,2013-04-06 12:35:00,
2013-04-06 08:37:00,39.3,27.7,30.13,SSE,163,6.0,12.0,63,0.00,,,0.00,Wunderground v.1.15,2013-04-06 12:37:00,
2013-04-06 08:38:00,39.4,27.8,30.13,SE,128,2.0,12.0,63,0.00,,,0.00,Wunderground v.1.15,2013-04-06 12:38:00,
2013-04-06 08:39:00,39.4,27.8,30.13,SSE,148,7.0,12.0,63,0.00,,,0.00,Wunderground v.1.15,2013-04-06 12:39:00,
2013-04-06 08:40:00,39.4,27.8,30.13,SSE,157,3.0,12.0,63,0.00,,,0.00,Wunderground v.1.15,2013-04-06 12:40:00,
2013-04-06 08:43:00,39.6,28.0,30.13,SSE,164,4.0,12.0,63,0.00,,,0.00,Wunderground v.1.15,2013-04-06 12:43:00,
2013-04-06 08:44:00,39.6,28.0,30.13,SE,129,3.0,12.0,63,0.00,,,0.00,Wunderground v.1.15,2013-04-06 12:44:00,
2013-04-06 08:45:00,39.7,28.1,30.13,SSE,165,3.0,12.0,63,0.00,,,0.00,Wunderground v.1.15,2013-04-06 12:45:00,
2013-04-06 08:48:00,39.9,27.9,30.13,South,173,10.0,12.0,62,0.00,,,0.00,Wunderground v.1.15,2013-04-06 12:48:00,
2013-04-06 08:49:00,39.9,27.9,30.13,SE,132,8.0,14.0,62,0.00,,,0.00,Wunderground v.1.15,2013-04-06 12:49:00,
2013-04-06 08:50:00,40.0,28.0,30.13,SSE,160,4.0,10.0,62,0.00,,,0.00,Wunderground v.1.15,2013-04-06 12:50:00,
2013-04-06 08:53:00,40.1,28.1,30.13,South,174,7.0,10.0,62,0.00,,,0.00,Wunderground v.1.15,2013-04-06 12:53:00,
2013-04-06 08:55:00,40.2,27.8,30.12,SSE,166,9.0,10.0,61,0.00,,,0.00,Wunderground v.1.15,2013-04-06 12:55:00,
2013-04-06 08:56:00,40.3,27.9,30.12,SSE,159,13.0,13.0,61,0.00,,,0.00,Wunderground v.1.15,2013-04-06 12:56:00,
2013-04-06 08:59:00,40.5,28.1,30.12,SE,146,3.0,13.0,61,0.00,,,0.00,Wunderground v.1.15,2013-04-06 12:59:00,
2013-04-06 09:00:00,40.5,28.1,30.12,SSE,166,7.0,10.0,61,0.00,,,0.00,Wunderground v.1.15,2013-04-06 13:00:00,
2013-04-06 09:01:00,40.6,27.8,30.12,SSE,161,6.0,11.0,60,0.00,,,0.00,Wunderground v.1.15,2013-04-06 13:01:00,
2013-04-06 09:03:00,40.7,27.9,30.12,South,176,5.0,11.0,60,0.00,,,0.00,Wunderground v.1.15,2013-04-06 13:03:00,
2013-04-06 09:04:00,40.7,27.9,30.12,ESE,112,6.0,13.0,60,0.00,,,0.00,Wunderground v.1.15,2013-04-06 13:04:00,
2013-04-06 09:07:00,40.8,28.0,30.12,South,176,5.0,13.0,60,0.00,,,0.00,Wunderground v.1.15,2013-04-06 13:07:00,
2013-04-06 09:08:00,40.9,28.1,30.12,South,169,4.0,13.0,60,0.00,,,0.00,Wunderground v.1.15,2013-04-06 13:08:00,
2013-04-06 09:10:00,41.1,28.3,30.11,SSE,166,7.0,7.0,60,0.00,,,0.00,Wunderground v.1.15,2013-04-06 13:10:00,
2013-04-06 09:12:00,41.1,28.3,30.11,SSE,158,6.0,7.0,60,0.00,,,0.00,Wunderground v.1.15,2013-04-06 13:12:00,
2013-04-06 09:13:00,41.2,28.8,30.11,SSE,168,10.0,12.0,61,0.00,,,0.00,Wunderground v.1.15,2013-04-06 13:13:00,
2013-04-06 09:15:00,41.3,28.4,30.11,SSE,153,7.0,14.0,60,0.00,,,0.00,Wunderground v.1.15,2013-04-06 13:15:00,
2013-04-06 09:17:00,41.4,28.5,30.11,SE,137,9.0,14.0,60,0.00,,,0.00,Wunderground v.1.15,2013-04-06 13:17:00,
2013-04-06 09:18:00,41.5,28.2,30.11,SSE,152,10.0,14.0,59,0.00,,,0.00,Wunderground v.1.15,2013-04-06 13:18:00,
2013-04-06 09:20:00,41.6,28.3,30.11,ESE,115,10.0,11.0,59,0.00,,,0.00,Wunderground v.1.15,2013-04-06 13:20:00,
2013-04-06 09:22:00,41.7,28.4,30.11,SSE,153,6.0,11.0,59,0.00,,,0.00,Wunderground v.1.15,2013-04-06 13:22:00,
2013-04-06 09:23:00,41.8,28.5,30.11,SE,144,10.0,11.0,59,0.00,,,0.00,Wunderground v.1.15,2013-04-06 13:23:00,
2013-04-06 09:25:00,41.8,28.1,30.11,SSE,161,10.0,11.0,58,0.00,,,0.00,Wunderground v.1.15,2013-04-06 13:25:00,
2013-04-06 09:26:00,41.9,28.2,30.11,South,169,7.0,11.0,58,0.00,,,0.00,Wunderground v.1.15,2013-04-06 13:26:00,
2013-04-06 09:27:00,41.9,28.2,30.11,SSE,164,9.0,12.0,58,0.00,,,0.00,Wunderground v.1.15,2013-04-06 13:27:00,
2013-04-06 09:28:00,41.9,28.2,30.10,SSE,165,5.0,12.0,58,0.00,,,0.00,Wunderground v.1.15,2013-04-06 13:28:00,
2013-04-06 09:30:00,42.0,28.3,30.10,SSE,152,4.0,13.0,58,0.00,,,0.00,Wunderground v.1.15,2013-04-06 13:30:00,
2013-04-06 09:31:00,42.0,28.3,30.10,South,177,10.0,13.0,58,0.00,,,0.00,Wunderground v.1.15,2013-04-06 13:31:00,
2013-04-06 09:32:00,42.1,28.4,30.10,SSE,161,10.0,13.0,58,0.00,,,0.00,Wunderground v.1.15,2013-04-06 13:32:00,
2013-04-06 09:33:00,42.2,28.5,30.10,South,169,10.0,13.0,58,0.00,,,0.00,Wunderground v.1.15,2013-04-06 13:33:00,
2013-04-06 09:36:00,42.2,28.5,30.10,SSE,163,8.0,13.0,58,0.00,,,0.00,Wunderground v.1.15,2013-04-06 13:36:00,
2013-04-06 09:38:00,42.3,28.6,30.10,South,169,12.0,13.0,58,0.00,,,0.00,Wunderground v.1.15,2013-04-06 13:38:00,
2013-04-06 09:41:00,42.4,28.7,30.10,SE,144,4.0,10.0,58,0.00,,,0.00,Wunderground v.1.15,2013-04-06 13:41:00,
2013-04-06 09:42:00,42.5,28.8,30.10,SSE,165,7.0,10.0,58,0.00,,,0.00,Wunderground v.1.15,2013-04-06 13:42:00,
2013-04-06 09:43:00,42.5,28.8,30.10,South,176,7.0,10.0,58,0.00,,,0.00,Wunderground v.1.15,2013-04-06 13:43:00,
2013-04-06 09:44:00,42.6,28.8,30.10,SSE,159,8.0,10.0,58,0.00,,,0.00,Wunderground v.1.15,2013-04-06 13:44:00,
2013-04-06 09:47:00,42.7,28.9,30.10,South,169,5.0,13.0,58,0.00,,,0.00,Wunderground v.1.15,2013-04-06 13:47:00,
2013-04-06 09:48:00,42.7,28.5,30.10,SSE,157,6.0,13.0,57,0.00,,,0.00,Wunderground v.1.15,2013-04-06 13:48:00,
2013-04-06 09:49:00,42.8,28.6,30.10,SSE,148,6.0,13.0,57,0.00,,,0.00,Wunderground v.1.15,2013-04-06 13:49:00,
2013-04-06 09:52:00,43.0,28.8,30.09,SSE,149,9.0,11.0,57,0.00,,,0.00,Wunderground v.1.15,2013-04-06 13:52:00,
2013-04-06 09:53:00,43.0,28.8,30.09,SSE,153,7.0,12.0,57,0.00,,,0.00,Wunderground v.1.15,2013-04-06 13:53:00,
2013-04-06 09:55:00,43.2,29.0,30.09,SE,142,5.0,12.0,57,0.00,,,0.00,Wunderground v.1.15,2013-04-06 13:55:00,
2013-04-06 09:58:00,43.3,28.6,30.09,South,175,5.0,12.0,56,0.00,,,0.00,Wunderground v.1.15,2013-04-06 13:58:00,
2013-04-06 09:59:00,43.4,29.2,30.09,SSE,154,10.0,12.0,57,0.00,,,0.00,Wunderground v.1.15,2013-04-06 13:59:00,
2013-04-06 10:00:00,43.5,28.8,30.09,South,177,7.0,7.0,56,0.00,,,0.00,Wunderground v.1.15,2013-04-06 14:00:00,
2013-04-06 10:03:00,43.6,28.9,30.09,SSE,150,4.0,14.0,56,0.00,,,0.00,Wunderground v.1.15,2013-04-06 14:03:00,
2013-04-06 10:05:00,43.8,29.1,30.09,South,173,10.0,14.0,56,0.00,,,0.00,Wunderground v.1.15,2013-04-06 14:05:00,
2013-04-06 10:06:00,43.9,29.2,30.09,SSE,157,6.0,14.0,56,0.00,,,0.00,Wunderground v.1.15,2013-04-06 14:06:00,
2013-04-06 10:08:00,44.0,29.3,30.09,SSE,167,4.0,14.0,56,0.00,,,0.00,Wunderground v.1.15,2013-04-06 14:08:00,
2013-04-06 10:11:00,44.2,29.5,30.09,South,186,7.0,10.0,56,0.00,,,0.00,Wunderground v.1.15,2013-04-06 14:11:00,
2013-04-06 10:13:00,44.5,29.3,30.09,SSE,157,4.0,12.0,55,0.00,,,0.00,Wunderground v.1.15,2013-04-06 14:13:00,
2013-04-06 10:14:00,44.5,29.3,30.09,South,179,4.0,12.0,55,0.00,,,0.00,Wunderground v.1.15,2013-04-06 14:14:00,
2013-04-06 10:16:00,44.6,29.4,30.09,SSE,153,9.0,12.0,55,0.00,,,0.00,Wunderground v.1.15,2013-04-06 14:16:00,
2013-04-06 10:17:00,44.8,29.6,30.09,WSW,248,7.0,12.0,55,0.00,,,0.00,Wunderground v.1.15,2013-04-06 14:17:00,
2013-04-06 10:19:00,45.0,29.8,30.09,SSE,159,6.0,12.0,55,0.00,,,0.00,Wunderground v.1.15,2013-04-06 14:19:00,
2013-04-06 10:21:00,45.0,29.8,30.09,South,173,6.0,12.0,55,0.00,,,0.00,Wunderground v.1.15,2013-04-06 14:21:00,
2013-04-06 10:22:00,45.0,29.8,30.09,SE,137,7.0,12.0,55,0.00,,,0.00,Wunderground v.1.15,2013-04-06 14:22:00,
2013-04-06 10:24:00,45.2,30.0,30.09,SSE,165,5.0,12.0,55,0.00,,,0.00,Wunderground v.1.15,2013-04-06 14:24:00,
2013-04-06 10:25:00,45.2,29.5,30.09,SSE,153,6.0,12.0,54,0.00,,,0.00,Wunderground v.1.15,2013-04-06 14:25:00,
2013-04-06 10:27:00,45.4,30.2,30.09,SSE,152,12.0,12.0,55,0.00,,,0.00,Wunderground v.1.15,2013-04-06 14:27:00,
2013-04-06 10:29:00,45.5,30.3,30.09,SSE,168,9.0,14.0,55,0.00,,,0.00,Wunderground v.1.15,2013-04-06 14:29:00,
2013-04-06 10:30:00,45.6,29.9,30.08,SSE,157,6.0,9.0,54,0.00,,,0.00,Wunderground v.1.15,2013-04-06 14:30:00,
2013-04-06 10:32:00,45.7,30.0,30.08,SSE,159,7.0,10.0,54,0.00,,,0.00,Wunderground v.1.15,2013-04-06 14:32:00,
2013-04-06 10:33:00,45.7,30.0,30.08,South,171,6.0,10.0,54,0.00,,,0.00,Wunderground v.1.15,2013-04-06 14:33:00,
2013-04-06 10:35:00,45.8,30.1,30.08,SSE,161,4.0,14.0,54,0.00,,,0.00,Wunderground v.1.15,2013-04-06 14:35:00,
2013-04-06 10:38:00,46.0,30.3,30.08,SSE,160,7.0,14.0,54,0.00,,,0.00,Wunderground v.1.15,2013-04-06 14:38:00,
2013-04-06 10:41:00,46.1,30.4,30.08,South,177,12.0,12.0,54,0.00,,,0.00,Wunderground v.1.15,2013-04-06 14:41:00,
2013-04-06 10:43:00,46.3,30.5,30.08,SSE,157,11.0,12.0,54,0.00,,,0.00,Wunderground v.1.15,2013-04-06 14:43:00,
2013-04-06 10:46:00,46.6,30.8,30.07,SSE,167,10.0,15.0,54,0.00,,,0.00,Wunderground v.1.15,2013-04-06 14:46:00,
2013-04-06 10:48:00,46.8,31.0,30.07,SE,124,3.0,15.0,54,0.00,,,0.00,Wunderground v.1.15,2013-04-06 14:48:00,
2013-04-06 10:49:00,46.9,30.6,30.07,SW,223,7.0,15.0,53,0.00,,,0.00,Wunderground v.1.15,2013-04-06 14:49:00,
2013-04-06 10:52:00,47.1,30.8,30.07,SE,141,3.0,12.0,53,0.00,,,0.00,Wunderground v.1.15,2013-04-06 14:52:00,
2013-04-06 10:54:00,47.3,31.0,30.07,SSE,160,5.0,12.0,53,0.00,,,0.00,Wunderground v.1.15,2013-04-06 14:54:00,
2013-04-06 10:55:00,47.4,31.1,30.06,South,180,4.0,12.0,53,0.00,,,0.00,Wunderground v.1.15,2013-04-06 14:55:00,
2013-04-06 10:57:00,47.5,30.7,30.06,South,179,11.0,12.0,52,0.00,,,0.00,Wunderground v.1.15,2013-04-06 14:57:00,
2013-04-06 10:59:00,47.7,30.9,30.06,South,176,5.0,12.0,52,0.00,,,0.00,Wunderground v.1.15,2013-04-06 14:59:00,
2013-04-06 11:00:00,47.7,30.9,30.06,SE,138,7.0,8.0,52,0.00,,,0.00,Wunderground v.1.15,2013-04-06 15:00:00,
2013-04-06 11:02:00,47.8,31.0,30.06,SSE,149,3.0,11.0,52,0.00,,,0.00,Wunderground v.1.15,2013-04-06 15:02:00,
2013-04-06 11:04:00,48.0,31.7,30.06,South,169,3.0,11.0,53,0.00,,,0.00,Wunderground v.1.15,2013-04-06 15:04:00,
2013-04-06 11:05:00,48.1,31.8,30.06,South,169,4.0,11.0,53,0.00,,,0.00,Wunderground v.1.15,2013-04-06 15:05:00,
2013-04-06 11:07:00,48.2,31.4,30.05,SE,145,9.0,11.0,52,0.00,,,0.00,Wunderground v.1.15,2013-04-06 15:07:00,
2013-04-06 11:10:00,48.3,31.0,30.05,SSE,163,11.0,11.0,51,0.00,,,0.00,Wunderground v.1.15,2013-04-06 15:10:00,
2013-04-06 11:12:00,48.5,31.2,30.05,SE,126,3.0,11.0,51,0.00,,,0.00,Wunderground v.1.15,2013-04-06 15:12:00,
2013-04-06 11:13:00,48.5,31.2,30.05,SSE,164,3.0,11.0,51,0.00,,,0.00,Wunderground v.1.15,2013-04-06 15:13:00,
2013-04-06 11:15:00,48.6,31.3,30.05,South,172,4.0,11.0,51,0.00,,,0.00,Wunderground v.1.15,2013-04-06 15:15:00,
2013-04-06 11:16:00,48.7,31.8,30.05,SSE,151,6.0,14.0,52,0.00,,,0.00,Wunderground v.1.15,2013-04-06 15:16:00,
2013-04-06 11:17:00,48.7,31.8,30.05,SSE,147,5.0,14.0,52,0.00,,,0.00,Wunderground v.1.15,2013-04-06 15:17:00,
2013-04-06 11:20:00,48.9,31.5,30.05,South,179,4.0,10.0,51,0.00,,,0.00,Wunderground v.1.15,2013-04-06 15:20:00,
2013-04-06 11:23:00,49.1,31.7,30.05,SSE,163,7.0,10.0,51,0.00,,,0.00,Wunderground v.1.15,2013-04-06 15:23:00,
2013-04-06 11:25:00,49.2,31.8,30.05,SSE,164,6.0,10.0,51,0.00,,,0.00,Wunderground v.1.15,2013-04-06 15:25:00,
2013-04-06 11:28:00,49.5,32.1,30.05,SSE,149,8.0,14.0,51,0.00,,,0.00,Wunderground v.1.15,2013-04-06 15:28:00,
2013-04-06 11:30:00,49.7,31.8,30.04,SSE,157,7.0,10.0,50,0.00,,,0.00,Wunderground v.1.15,2013-04-06 15:30:00,
2013-04-06 11:33:00,50.1,32.2,30.04,South,175,6.0,18.0,50,0.00,,,0.00,Wunderground v.1.15,2013-04-06 15:33:00,
2013-04-06 11:35:00,50.3,32.4,30.04,SSE,157,6.0,18.0,50,0.00,,,0.00,Wunderground v.1.15,2013-04-06 15:35:00,
2013-04-06 11:38:00,50.5,32.5,30.04,SSE,165,5.0,18.0,50,0.00,,,0.00,Wunderground v.1.15,2013-04-06 15:38:00,
2013-04-06 11:39:00,50.6,32.6,30.04,SE,144,4.0,18.0,50,0.00,,,0.00,Wunderground v.1.15,2013-04-06 15:39:00,
2013-04-06 11:40:00,50.8,32.8,30.04,SSE,161,6.0,13.0,50,0.00,,,0.00,Wunderground v.1.15,2013-04-06 15:40:00,
2013-04-06 11:41:00,50.8,32.8,30.04,SSE,167,10.0,13.0,50,0.00,,,0.00,Wunderground v.1.15,2013-04-06 15:41:00,
2013-04-06 11:43:00,51.1,32.6,30.04,SSE,164,8.0,13.0,49,0.00,,,0.00,Wunderground v.1.15,2013-04-06 15:43:00,
2013-04-06 11:44:00,51.2,32.7,30.04,SSE,160,18.0,18.0,49,0.00,,,0.00,Wunderground v.1.15,2013-04-06 15:44:00,
2013-04-06 11:46:00,51.4,32.9,30.03,South,181,10.0,18.0,49,0.00,,,0.00,Wunderground v.1.15,2013-04-06 15:46:00,
2013-04-06 11:49:00,51.8,33.2,30.03,SSE,156,7.0,18.0,49,0.00,,,0.00,Wunderground v.1.15,2013-04-06 15:49:00,
2013-04-06 11:51:00,51.9,32.8,30.03,SE,136,3.0,10.0,48,0.00,,,0.00,Wunderground v.1.15,2013-04-06 15:51:00,
2013-04-06 11:52:00,52.0,33.4,30.03,South,184,13.0,13.0,49,0.00,,,0.00,Wunderground v.1.15,2013-04-06 15:52:00,
2013-04-06 11:54:00,52.2,33.1,30.02,SSE,150,2.0,14.0,48,0.00,,,0.00,Wunderground v.1.15,2013-04-06 15:54:00,
2013-04-06 11:55:00,52.3,33.2,30.02,South,175,5.0,14.0,48,0.00,,,0.00,Wunderground v.1.15,2013-04-06 15:55:00,
2013-04-06 11:57:00,52.4,33.8,30.02,SE,145,10.0,14.0,49,0.00,,,0.00,Wunderground v.1.15,2013-04-06 15:57:00,
2013-04-06 12:00:00,52.7,34.1,30.02,South,185,5.0,7.0,49,0.00,,,0.00,Wunderground v.1.15,2013-04-06 16:00:00,
2013-04-06 12:02:00,52.9,33.7,30.02,SSW,203,9.0,9.0,48,0.00,,,0.00,Wunderground v.1.15,2013-04-06 16:02:00,
2013-04-06 12:05:00,53.1,33.4,30.02,SSE,165,7.0,15.0,47,0.00,,,0.00,Wunderground v.1.15,2013-04-06 16:05:00,
2013-04-06 12:06:00,53.1,33.4,30.02,South,169,6.0,15.0,47,0.00,,,0.00,Wunderground v.1.15,2013-04-06 16:06:00,
2013-04-06 12:07:00,53.1,33.4,30.02,South,187,4.0,15.0,47,0.00,,,0.00,Wunderground v.1.15,2013-04-06 16:07:00,
2013-04-06 12:10:00,53.1,33.4,30.02,SSE,165,11.0,11.0,47,0.00,,,0.00,Wunderground v.1.15,2013-04-06 16:10:00,
2013-04-06 12:11:00,53.1,33.4,30.02,South,179,10.0,12.0,47,0.00,,,0.00,Wunderground v.1.15,2013-04-06 16:11:00,
2013-04-06 12:13:00,53.0,33.3,30.02,South,185,9.0,13.0,47,0.00,,,0.00,Wunderground v.1.15,2013-04-06 16:13:00,
2013-04-06 12:15:00,53.0,33.8,30.02,SE,146,10.0,14.0,48,0.00,,,0.00,Wunderground v.1.15,2013-04-06 16:15:00,
2013-04-06 12:17:00,53.1,33.9,30.01,SSE,165,5.0,14.0,48,0.00,,,0.00,Wunderground v.1.15,2013-04-06 16:17:00,
2013-04-06 12:18:00,53.2,34.0,30.01,SSW,202,9.0,14.0,48,0.00,,,0.00,Wunderground v.1.15,2013-04-06 16:18:00,
2013-04-06 12:20:00,53.5,34.8,30.01,South,178,9.0,14.0,49,0.00,,,0.00,Wunderground v.1.15,2013-04-06 16:20:00,
2013-04-06 12:22:00,54.1,34.8,30.01,South,183,4.0,15.0,48,0.00,,,0.00,Wunderground v.1.15,2013-04-06 16:22:00,
2013-04-06 12:23:00,54.2,34.4,30.01,South,182,6.0,15.0,47,0.00,,,0.00,Wunderground v.1.15,2013-04-06 16:23:00,
2013-04-06 12:25:00,54.5,34.7,30.01,South,173,8.0,15.0,47,0.00,,,0.00,Wunderground v.1.15,2013-04-06 16:25:00,
2013-04-06 12:28:00,54.8,34.4,30.01,SSE,165,7.0,15.0,46,0.00,,,0.00,Wunderground v.1.15,2013-04-06 16:28:00,
2013-04-06 12:29:00,55.0,35.1,30.01,SSE,166,10.0,15.0,47,0.00,,,0.00,Wunderground v.1.15,2013-04-06 16:29:00,
2013-04-06 12:30:00,55.1,35.2,30.00,SSE,159,6.0,13.0,47,0.00,,,0.00,Wunderground v.1.15,2013-04-06 16:30:00,
2013-04-06 12:33:00,55.4,35.5,30.01,ESE,110,6.0,13.0,47,0.00,,,0.00,Wunderground v.1.15,2013-04-06 16:33:00,
2013-04-06 12:34:00,55.5,35.0,30.01,SSE,165,10.0,13.0,46,0.00,,,0.00,Wunderground v.1.15,2013-04-06 16:34:00,
2013-04-06 12:35:00,55.6,35.1,30.00,SE,146,10.0,13.0,46,0.00,,,0.00,Wunderground v.1.15,2013-04-06 16:35:00,
2013-04-06 12:36:00,55.6,34.6,30.00,South,178,11.0,13.0,45,0.00,,,0.00,Wunderground v.1.15,2013-04-06 16:36:00,
2013-04-06 12:38:00,55.8,34.8,30.00,SSW,206,9.0,13.0,45,0.00,,,0.00,Wunderground v.1.15,2013-04-06 16:38:00,
2013-04-06 12:39:00,55.8,34.8,30.00,South,173,16.0,16.0,45,0.00,,,0.00,Wunderground v.1.15,2013-04-06 16:39:00,
2013-04-06 12:40:00,55.8,34.8,30.00,South,190,11.0,11.0,45,0.00,,,0.00,Wunderground v.1.15,2013-04-06 16:40:00,
2013-04-06 12:43:00,56.0,34.9,30.00,SSE,166,9.0,15.0,45,0.00,,,0.00,Wunderground v.1.15,2013-04-06 16:43:00,
2013-04-06 12:45:00,56.3,35.2,30.00,South,169,12.0,15.0,45,0.00,,,0.00,Wunderground v.1.15,2013-04-06 16:45:00,
2013-04-06 12:48:00,56.8,35.1,29.99,SSE,161,7.0,15.0,44,0.00,,,0.00,Wunderground v.1.15,2013-04-06 16:48:00,
2013-04-06 12:50:00,57.1,35.9,29.99,South,169,11.0,11.0,45,0.00,,,0.00,Wunderground v.1.15,2013-04-06 16:50:00,
2013-04-06 12:51:00,57.3,35.6,30.00,South,188,5.0,12.0,44,0.00,,,0.00,Wunderground v.1.15,2013-04-06 16:51:00,
2013-04-06 12:53:00,57.8,36.0,29.99,South,179,10.0,14.0,44,0.00,,,0.00,Wunderground v.1.15,2013-04-06 16:53:00,
2013-04-06 12:55:00,58.1,35.7,29.99,SE,126,5.0,14.0,43,0.00,,,0.00,Wunderground v.1.15,2013-04-06 16:55:00,
2013-04-06 12:56:00,58.3,35.9,29.99,SE,129,5.0,14.0,43,0.00,,,0.00,Wunderground v.1.15,2013-04-06 16:56:00,
2013-04-06 12:58:00,58.5,36.1,29.99,SE,126,7.0,14.0,43,0.00,,,0.00,Wunderground v.1.15,2013-04-06 16:58:00,
2013-04-06 13:00:00,58.6,35.0,29.99,ESE,121,17.0,17.0,41,0.00,,,0.00,Wunderground v.1.15,2013-04-06 17:00:00,
2013-04-06 13:02:00,58.5,34.2,29.98,South,178,11.0,18.0,40,0.00,,,0.00,Wunderground v.1.15,2013-04-06 17:02:00,
2013-04-06 13:04:00,58.4,35.4,29.98,South,176,7.0,18.0,42,0.00,,,0.00,Wunderground v.1.15,2013-04-06 17:04:00,
2013-04-06 13:05:00,58.5,35.5,29.99,SSE,153,8.0,18.0,42,0.00,,,0.00,Wunderground v.1.15,2013-04-06 17:05:00,
2013-04-06 13:07:00,58.7,36.2,29.99,South,175,10.0,18.0,43,0.00,,,0.00,Wunderground v.1.15,2013-04-06 17:07:00,
2013-04-06 13:09:00,59.0,35.9,29.98,SSE,148,11.0,18.0,42,0.00,,,0.00,Wunderground v.1.15,2013-04-06 17:09:00,
2013-04-06 13:10:00,59.0,35.9,29.98,SE,144,9.0,10.0,42,0.00,,,0.00,Wunderground v.1.15,2013-04-06 17:10:00,
2013-04-06 13:12:00,59.0,35.9,29.98,South,189,8.0,10.0,42,0.00,,,0.00,Wunderground v.1.15,2013-04-06 17:12:00,
2013-04-06 13:13:00,59.0,35.9,29.98,ESE,111,6.0,10.0,42,0.00,,,0.00,Wunderground v.1.15,2013-04-06 17:13:00,
2013-04-06 13:14:00,59.0,35.3,29.98,SSE,155,11.0,14.0,41,0.00,,,0.00,Wunderground v.1.15,2013-04-06 17:14:00,
2013-04-06 13:15:00,59.1,35.4,29.98,SSE,159,7.0,16.0,41,0.00,,,0.00,Wunderground v.1.15,2013-04-06 17:15:00,
2013-04-06 13:17:00,59.3,36.2,29.98,ESE,106,7.0,16.0,42,0.00,,,0.00,Wunderground v.1.15,2013-04-06 17:17:00,
2013-04-06 13:19:00,59.4,35.7,29.98,South,179,5.0,16.0,41,0.00,,,0.00,Wunderground v.1.15,2013-04-06 17:19:00,
2013-04-06 13:20:00,59.6,36.5,29.98,South,169,9.0,11.0,42,0.00,,,0.00,Wunderground v.1.15,2013-04-06 17:20:00,
2013-04-06 13:21:00,59.6,35.9,29.98,ESE,114,7.0,14.0,41,0.00,,,0.00,Wunderground v.1.15,2013-04-06 17:21:00,
2013-04-06 13:22:00,59.8,36.6,29.98,SSE,149,10.0,14.0,42,0.00,,,0.00,Wunderground v.1.15,2013-04-06 17:22:00,
2013-04-06 13:24:00,60.0,36.2,29.97,SSE,153,4.0,14.0,41,0.00,,,0.00,Wunderground v.1.15,2013-04-06 17:24:00,
2013-04-06 13:25:00,60.2,37.0,29.97,SSE,150,10.0,14.0,42,0.00,,,0.00,Wunderground v.1.15,2013-04-06 17:25:00,
2013-04-06 13:26:00,60.3,37.1,29.97,SSE,155,10.0,14.0,42,0.00,,,0.00,Wunderground v.1.15,2013-04-06 17:26:00,
2013-04-06 13:27:00,60.4,35.9,29.97,SSE,154,6.0,14.0,40,0.00,,,0.00,Wunderground v.1.15,2013-04-06 17:27:00,
2013-04-06 13:30:00,60.6,36.8,29.97,South,171,10.0,11.0,41,0.00,,,0.00,Wunderground v.1.15,2013-04-06 17:30:00,
2013-04-06 13:31:00,60.7,36.2,29.97,South,169,9.0,11.0,40,0.00,,,0.00,Wunderground v.1.15,2013-04-06 17:31:00,
2013-04-06 13:32:00,60.7,36.2,29.97,South,174,11.0,11.0,40,0.00,,,0.00,Wunderground v.1.15,2013-04-06 17:32:00,
2013-04-06 13:35:00,60.8,36.9,29.97,SSE,166,5.0,11.0,41,0.00,,,0.00,Wunderground v.1.15,2013-04-06 17:35:00,
2013-04-06 13:36:00,60.8,36.9,29.96,SSE,164,10.0,11.0,41,0.00,,,0.00,Wunderground v.1.15,2013-04-06 17:36:00,
2013-04-06 13:38:00,60.9,37.0,29.96,South,175,4.0,11.0,41,0.00,,,0.00,Wunderground v.1.15,2013-04-06 17:38:00,
2013-04-06 13:40:00,60.9,35.8,29.97,South,179,3.0,10.0,39,0.00,,,0.00,Wunderground v.1.15,2013-04-06 17:40:00,
2013-04-06 13:41:00,60.8,36.3,29.96,ESE,103,7.0,10.0,40,0.00,,,0.00,Wunderground v.1.15,2013-04-06 17:41:00,
2013-04-06 13:43:00,60.7,36.2,29.96,SSE,163,10.0,12.0,40,0.00,,,0.00,Wunderground v.1.15,2013-04-06 17:43:00,
2013-04-06 13:45:00,60.6,36.1,29.96,SE,140,8.0,12.0,40,0.00,,,0.00,Wunderground v.1.15,2013-04-06 17:45:00,
2013-04-06 13:47:00,60.4,35.9,29.95,SW,236,6.0,13.0,40,0.00,,,0.00,Wunderground v.1.15,2013-04-06 17:47:00,
2013-04-06 13:48:00,60.4,35.9,29.95,SW,217,6.0,13.0,40,0.00,,,0.00,Wunderground v.1.15,2013-04-06 17:48:00,
2013-04-06 13:50:00,60.3,35.9,29.95,SW,225,6.0,8.0,40,0.00,,,0.00,Wunderground v.1.15,2013-04-06 17:50:00,
2013-04-06 13:53:00,60.2,35.8,29.95,SE,142,4.0,11.0,40,0.00,,,0.00,Wunderground v.1.15,2013-04-06 17:53:00,
2013-04-06 13:55:00,60.2,37.0,29.95,South,169,5.0,16.0,42,0.00,,,0.00,Wunderground v.1.15,2013-04-06 17:55:00,
2013-04-06 13:58:00,60.0,35.6,29.95,SSW,195,8.0,16.0,40,0.00,,,0.00,Wunderground v.1.15,2013-04-06 17:58:00,
2013-04-06 14:00:00,59.7,35.3,29.94,South,179,3.0,10.0,40,0.00,,,0.00,Wunderground v.1.15,2013-04-06 18:00:00,
2013-04-06 14:02:00,59.6,35.9,29.94,South,170,1.0,10.0,41,0.00,,,0.00,Wunderground v.1.15,2013-04-06 18:02:00,
2013-04-06 14:03:00,59.5,35.8,29.94,SSE,157,6.0,11.0,41,0.00,,,0.00,Wunderground v.1.15,2013-04-06 18:03:00,
2013-04-06 14:04:00,59.4,35.7,29.94,WSW,250,3.0,11.0,41,0.00,,,0.00,Wunderground v.1.15,2013-04-06 18:04:00,
2013-04-06 14:07:00,59.0,35.3,29.94,South,171,3.0,11.0,41,0.00,,,0.00,Wunderground v.1.15,2013-04-06 18:07:00,
2013-04-06 14:08:00,59.0,35.3,29.94,SSE,155,9.0,14.0,41,0.00,,,0.00,Wunderground v.1.15,2013-04-06 18:08:00,
2013-04-06 14:09:00,59.0,35.3,29.93,SSE,159,6.0,14.0,41,0.00,,,0.00,Wunderground v.1.15,2013-04-06 18:09:00,
2013-04-06 14:12:00,58.7,35.7,29.93,South,180,4.0,11.0,42,0.00,,,0.00,Wunderground v.1.15,2013-04-06 18:12:00,
2013-04-06 14:13:00,58.7,35.7,29.93,South,179,10.0,14.0,42,0.00,,,0.00,Wunderground v.1.15,2013-04-06 18:13:00,
2013-04-06 14:14:00,58.6,35.0,29.93,South,173,4.0,14.0,41,0.00,,,0.00,Wunderground v.1.15,2013-04-06 18:14:00,
2013-04-06 14:15:00,58.6,35.0,29.93,SSE,165,9.0,14.0,41,0.00,,,0.00,Wunderground v.1.15,2013-04-06 18:15:00,
2013-04-06 14:18:00,58.4,35.4,29.92,SSE,163,14.0,16.0,42,0.00,,,0.00,Wunderground v.1.15,2013-04-06 18:18:00,
2013-04-06 14:19:00,58.4,35.4,29.92,SSE,160,5.0,16.0,42,0.00,,,0.00,Wunderground v.1.15,2013-04-06 18:19:00,
2013-04-06 14:20:00,58.4,35.4,29.92,South,174,5.0,8.0,42,0.00,,,0.00,Wunderground v.1.15,2013-04-06 18:20:00,
2013-04-06 14:23:00,58.4,35.4,29.92,SSE,161,6.0,12.0,42,0.00,,,0.00,Wunderground v.1.15,2013-04-06 18:23:00,
2013-04-06 14:24:00,58.5,35.5,29.92,SSE,163,6.0,12.0,42,0.00,,,0.00,Wunderground v.1.15,2013-04-06 18:24:00,
2013-04-06 14:25:00,58.5,35.5,29.91,SSE,156,10.0,12.0,42,0.00,,,0.00,Wunderground v.1.15,2013-04-06 18:25:00,
2013-04-06 14:29:00,58.6,36.2,29.91,SSE,160,6.0,12.0,43,0.00,,,0.00,Wunderground v.1.15,2013-04-06 18:29:00,
2013-04-06 14:30:00,58.7,36.2,29.91,SSE,158,6.0,11.0,43,0.00,,,0.00,Wunderground v.1.15,2013-04-06 18:30:00,
2013-04-06 14:31:00,58.7,36.2,29.91,SSE,164,9.0,11.0,43,0.00,,,0.00,Wunderground v.1.15,2013-04-06 18:31:00,
2013-04-06 14:34:00,59.0,35.9,29.91,South,173,5.0,11.0,42,0.00,,,0.00,Wunderground v.1.15,2013-04-06 18:34:00,
2013-04-06 14:35:00,59.0,35.9,29.91,SW,222,5.0,11.0,42,0.00,,,0.00,Wunderground v.1.15,2013-04-06 18:35:00,
2013-04-06 14:36:00,59.0,36.5,29.91,SSW,192,3.0,12.0,43,0.00,,,0.00,Wunderground v.1.15,2013-04-06 18:36:00,
2013-04-06 14:39:00,59.0,35.9,29.91,SSE,168,4.0,12.0,42,0.00,,,0.00,Wunderground v.1.15,2013-04-06 18:39:00,
2013-04-06 14:40:00,59.0,35.9,29.91,South,184,4.0,10.0,42,0.00,,,0.00,Wunderground v.1.15,2013-04-06 18:40:00,
2013-04-06 14:41:00,59.0,35.9,29.91,SSE,157,3.0,10.0,42,0.00,,,0.00,Wunderground v.1.15,2013-04-06 18:41:00,
2013-04-06 14:42:00,59.0,35.9,29.90,South,184,13.0,13.0,42,0.00,,,0.00,Wunderground v.1.15,2013-04-06 18:42:00,
2013-04-06 14:45:00,59.5,37.0,29.90,SSE,159,6.0,15.0,43,0.00,,,0.00,Wunderground v.1.15,2013-04-06 18:45:00,
2013-04-06 14:46:00,59.7,37.2,29.90,South,169,5.0,15.0,43,0.00,,,0.00,Wunderground v.1.15,2013-04-06 18:46:00,
2013-04-06 14:47:00,59.8,37.2,29.90,SSE,161,10.0,15.0,43,0.00,,,0.00,Wunderground v.1.15,2013-04-06 18:47:00,
2013-04-06 14:50:00,60.2,36.4,29.90,SSE,152,5.0,8.0,41,0.00,,,0.00,Wunderground v.1.15,2013-04-06 18:50:00,
2013-04-06 14:51:00,60.3,36.5,29.89,SE,145,10.0,12.0,41,0.00,,,0.00,Wunderground v.1.15,2013-04-06 18:51:00,
2013-04-06 14:52:00,60.3,36.5,29.89,SSE,149,6.0,12.0,41,0.00,,,0.00,Wunderground v.1.15,2013-04-06 18:52:00,
2013-04-06 14:55:00,60.4,36.6,29.89,SSE,163,5.0,12.0,41,0.00,,,0.00,Wunderground v.1.15,2013-04-06 18:55:00,
2013-04-06 14:56:00,60.4,36.6,29.89,SSE,164,5.0,12.0,41,0.00,,,0.00,Wunderground v.1.15,2013-04-06 18:56:00,
2013-04-06 14:57:00,60.4,36.6,29.88,SSE,150,7.0,14.0,41,0.00,,,0.00,Wunderground v.1.15,2013-04-06 18:57:00,
2013-04-06 15:01:00,60.5,36.7,29.88,SSE,167,6.0,11.0,41,0.00,,,0.00,Wunderground v.1.15,2013-04-06 19:01:00,
2013-04-06 15:02:00,60.7,37.5,29.88,SSW,199,5.0,16.0,42,0.00,,,0.00,Wunderground v.1.15,2013-04-06 19:02:00,
2013-04-06 15:06:00,61.1,37.8,29.88,SSE,149,6.0,16.0,42,0.00,,,0.00,Wunderground v.1.15,2013-04-06 19:06:00,
2013-04-06 15:07:00,61.2,37.9,29.88,SSE,155,6.0,16.0,42,0.00,,,0.00,Wunderground v.1.15,2013-04-06 19:07:00,
2013-04-06 15:12:00,61.9,37.3,29.88,South,188,12.0,12.0,40,0.00,,,0.00,Wunderground v.1.15,2013-04-06 19:12:00,
2013-04-06 15:13:00,62.0,37.4,29.87,SSE,155,10.0,16.0,40,0.00,,,0.00,Wunderground v.1.15,2013-04-06 19:13:00,
2013-04-06 15:17:00,63.1,39.0,29.87,SSE,166,7.0,16.0,41,0.00,,,0.00,Wunderground v.1.15,2013-04-06 19:17:00,
2013-04-06 15:18:00,63.1,39.0,29.87,South,173,6.0,16.0,41,0.00,,,0.00,Wunderground v.1.15,2013-04-06 19:18:00,
2013-04-06 15:23:00,63.7,37.6,29.86,SE,133,4.0,12.0,38,0.00,,,0.00,Wunderground v.1.15,2013-04-06 19:23:00,
2013-04-06 15:24:00,63.7,37.6,29.86,South,180,11.0,13.0,38,0.00,,,0.00,Wunderground v.1.15,2013-04-06 19:24:00,
2013-04-06 15:28:00,64.3,39.4,29.87,South,171,6.0,13.0,40,0.00,,,0.00,Wunderground v.1.15,2013-04-06 19:28:00,
2013-04-06 15:29:00,64.5,39.0,29.86,South,184,11.0,13.0,39,0.00,,,0.00,Wunderground v.1.15,2013-04-06 19:29:00,
2013-04-06 15:33:00,65.0,38.8,29.85,South,191,4.0,15.0,38,0.00,,,0.00,Wunderground v.1.15,2013-04-06 19:33:00,
2013-04-06 15:34:00,65.1,38.8,29.85,South,183,13.0,15.0,38,0.00,,,0.00,Wunderground v.1.15,2013-04-06 19:34:00,
2013-04-06 15:38:00,65.7,39.4,29.85,SSE,160,11.0,15.0,38,0.00,,,0.00,Wunderground v.1.15,2013-04-06 19:38:00,
2013-04-06 15:39:00,65.7,38.7,29.85,SSE,167,5.0,15.0,37,0.00,,,0.00,Wunderground v.1.15,2013-04-06 19:39:00,
2013-04-06 15:40:00,65.8,38.8,29.85,SSE,151,11.0,11.0,37,0.00,,,0.00,Wunderground v.1.15,2013-04-06 19:40:00,
2013-04-06 15:43:00,65.4,38.4,29.84,SSW,203,10.0,17.0,37,0.00,,,0.00,Wunderground v.1.15,2013-04-06 19:43:00,
2013-04-06 15:45:00,65.3,38.3,29.84,SSE,161,6.0,17.0,37,0.00,,,0.00,Wunderground v.1.15,2013-04-06 19:45:00,
2013-04-06 15:49:00,64.9,38.7,29.84,SSW,200,9.0,17.0,38,0.00,,,0.00,Wunderground v.1.15,2013-04-06 19:49:00,
2013-04-06 15:50:00,64.9,38.7,29.84,SSW,194,9.0,12.0,38,0.00,,,0.00,Wunderground v.1.15,2013-04-06 19:50:00,
2013-04-06 15:55:00,64.8,38.6,29.83,South,177,7.0,17.0,38,0.00,,,0.00,Wunderground v.1.15,2013-04-06 19:55:00,
2013-04-06 16:00:00,64.5,38.3,29.83,SSE,155,4.0,7.0,38,0.00,,,0.00,Wunderground v.1.15,2013-04-06 20:00:00,
2013-04-06 16:05:00,64.4,38.9,29.83,SSW,194,3.0,13.0,39,0.00,,,0.00,Wunderground v.1.15,2013-04-06 20:05:00,
2013-04-06 16:10:00,64.5,39.6,29.82,SSE,150,1.0,6.0,40,0.00,,,0.00,Wunderground v.1.15,2013-04-06 20:10:00,
2013-04-06 16:11:00,64.6,39.7,29.82,South,170,12.0,12.0,40,0.00,,,0.00,Wunderground v.1.15,2013-04-06 20:11:00,
2013-04-06 16:12:00,64.7,39.8,29.82,South,169,6.0,12.0,40,0.00,,,0.00,Wunderground v.1.15,2013-04-06 20:12:00,
2013-04-06 16:16:00,66.0,41.0,29.82,South,180,10.0,12.0,40,0.00,,,0.00,Wunderground v.1.15,2013-04-06 20:16:00,
2013-04-06 16:17:00,66.3,40.6,29.81,SSE,150,6.0,12.0,39,0.00,,,0.00,Wunderground v.1.15,2013-04-06 20:17:00,
2013-04-06 16:18:00,66.6,40.2,29.81,South,169,5.0,12.0,38,0.00,,,0.00,Wunderground v.1.15,2013-04-06 20:18:00,
2013-04-06 16:21:00,67.6,40.4,29.81,South,183,6.0,15.0,37,0.00,,,0.00,Wunderground v.1.15,2013-04-06 20:21:00,
2013-04-06 16:22:00,67.7,40.5,29.81,South,176,5.0,15.0,37,0.00,,,0.00,Wunderground v.1.15,2013-04-06 20:22:00,
2013-04-06 16:23:00,67.9,41.3,29.81,SSE,168,5.0,15.0,38,0.00,,,0.00,Wunderground v.1.15,2013-04-06 20:23:00,
2013-04-06 16:27:00,68.4,41.1,29.81,SSE,165,3.0,15.0,37,0.00,,,0.00,Wunderground v.1.15,2013-04-06 20:27:00,
2013-04-06 16:29:00,68.6,40.6,29.81,SSW,192,5.0,15.0,36,0.00,,,0.00,Wunderground v.1.15,2013-04-06 20:29:00,
2013-04-06 16:32:00,68.9,41.5,29.81,South,169,4.0,6.0,37,0.00,,,0.00,Wunderground v.1.15,2013-04-06 20:32:00,
2013-04-06 16:33:00,69.0,42.3,29.81,South,179,1.0,7.0,38,0.00,,,0.00,Wunderground v.1.15,2013-04-06 20:33:00,
2013-04-06 16:34:00,69.2,41.1,29.81,SSE,155,3.0,8.0,36,0.00,,,0.00,Wunderground v.1.15,2013-04-06 20:34:00,
2013-04-06 16:37:00,69.3,40.5,29.80,SSE,161,7.0,12.0,35,0.00,,,0.00,Wunderground v.1.15,2013-04-06 20:37:00,
2013-04-06 16:38:00,69.3,40.5,29.80,South,188,6.0,12.0,35,0.00,,,0.00,Wunderground v.1.15,2013-04-06 20:38:00,
2013-04-06 16:40:00,69.5,41.4,29.81,South,178,4.0,5.0,36,0.00,,,0.00,Wunderground v.1.15,2013-04-06 20:40:00,
2013-04-06 16:42:00,69.4,40.5,29.80,South,173,14.0,15.0,35,0.00,,,0.00,Wunderground v.1.15,2013-04-06 20:42:00,
2013-04-06 16:43:00,69.4,40.5,29.80,SSW,200,11.0,15.0,35,0.00,,,0.00,Wunderground v.1.15,2013-04-06 20:43:00,
2013-04-06 16:45:00,69.1,41.0,29.80,South,191,5.0,15.0,36,0.00,,,0.00,Wunderground v.1.15,2013-04-06 20:45:00,
2013-04-06 16:48:00,69.2,41.8,29.79,SSE,160,7.0,15.0,37,0.00,,,0.00,Wunderground v.1.15,2013-04-06 20:48:00,
2013-04-06 16:51:00,69.0,40.2,29.79,SSE,159,5.0,11.0,35,0.00,,,0.00,Wunderground v.1.15,2013-04-06 20:51:00,
2013-04-06 16:53:00,68.7,39.9,29.79,South,174,2.0,11.0,35,0.00,,,0.00,Wunderground v.1.15,2013-04-06 20:53:00,
2013-04-06 16:58:00,67.9,39.9,29.79,SSW,193,9.0,15.0,36,0.00,,,0.00,Wunderground v.1.15,2013-04-06 20:58:00,
2013-04-06 16:59:00,67.8,40.6,29.79,SSE,161,7.0,15.0,37,0.00,,,0.00,Wunderground v.1.15,2013-04-06 20:59:00,
2013-04-06 17:03:00,66.8,39.7,29.79,South,172,7.0,15.0,37,0.00,,,0.00,Wunderground v.1.15,2013-04-06 21:03:00,
2013-04-06 17:04:00,66.7,39.6,29.79,South,188,2.0,15.0,37,0.00,,,0.00,Wunderground v.1.15,2013-04-06 21:04:00,
2013-04-06 17:08:00,66.2,39.8,29.79,South,178,7.0,15.0,38,0.00,,,0.00,Wunderground v.1.15,2013-04-06 21:08:00,
2013-04-06 17:09:00,66.2,39.8,29.79,SSE,159,11.0,15.0,38,0.00,,,0.00,Wunderground v.1.15,2013-04-06 21:09:00,
2013-04-06 17:10:00,66.0,39.7,29.79,SSW,198,9.0,12.0,38,0.00,,,0.00,Wunderground v.1.15,2013-04-06 21:10:00,
2013-04-06 17:14:00,65.7,40.1,29.79,SSW,213,5.0,12.0,39,0.00,,,0.00,Wunderground v.1.15,2013-04-06 21:14:00,
2013-04-06 17:15:00,65.6,39.3,29.79,SSW,207,2.0,12.0,38,0.00,,,0.00,Wunderground v.1.15,2013-04-06 21:15:00,
2013-04-06 17:16:00,65.4,39.8,29.79,South,175,4.0,12.0,39,0.00,,,0.00,Wunderground v.1.15,2013-04-06 21:16:00,
2013-04-06 17:19:00,65.4,39.8,29.79,SSE,165,3.0,12.0,39,0.00,,,0.00,Wunderground v.1.15,2013-04-06 21:19:00,
2013-04-06 17:20:00,65.3,40.3,29.78,SW,215,6.0,12.0,40,0.00,,,0.00,Wunderground v.1.15,2013-04-06 21:20:00,
2013-04-06 17:22:00,65.3,39.7,29.79,South,186,2.0,12.0,39,0.00,,,0.00,Wunderground v.1.15,2013-04-06 21:22:00,
2013-04-06 17:25:00,65.2,40.3,29.78,SE,140,4.0,12.0,40,0.00,,,0.00,Wunderground v.1.15,2013-04-06 21:25:00,
2013-04-06 17:26:00,65.3,40.3,29.78,SSE,163,6.0,12.0,40,0.00,,,0.00,Wunderground v.1.15,2013-04-06 21:26:00,
2013-04-06 17:27:00,65.3,40.3,29.78,SW,230,4.0,12.0,40,0.00,,,0.00,Wunderground v.1.15,2013-04-06 21:27:00,
2013-04-06 17:30:00,65.4,39.8,29.78,SSE,160,12.0,12.0,39,0.00,,,0.00,Wunderground v.1.15,2013-04-06 21:30:00,
2013-04-06 17:31:00,65.3,39.7,29.78,SSE,152,8.0,12.0,39,0.00,,,0.00,Wunderground v.1.15,2013-04-06 21:31:00,
2013-04-06 17:32:00,65.3,40.3,29.78,SSE,165,5.0,12.0,40,0.00,,,0.00,Wunderground v.1.15,2013-04-06 21:32:00,
2013-04-06 17:34:00,65.2,40.3,29.78,SSE,158,8.0,12.0,40,0.00,,,0.00,Wunderground v.1.15,2013-04-06 21:34:00,
2013-04-06 17:35:00,65.2,40.3,29.78,South,177,6.0,12.0,40,0.00,,,0.00,Wunderground v.1.15,2013-04-06 21:35:00,
2013-04-06 17:37:00,65.1,40.2,29.78,South,179,5.0,13.0,40,0.00,,,0.00,Wunderground v.1.15,2013-04-06 21:37:00,
2013-04-06 17:38:00,65.1,40.2,29.78,SE,138,2.0,13.0,40,0.00,,,0.00,Wunderground v.1.15,2013-04-06 21:38:00,
2013-04-06 17:39:00,65.2,40.3,29.78,South,177,2.0,13.0,40,0.00,,,0.00,Wunderground v.1.15,2013-04-06 21:39:00,
2013-04-06 17:41:00,65.4,41.1,29.78,South,186,7.0,10.0,41,0.00,,,0.00,Wunderground v.1.15,2013-04-06 21:41:00,
2013-04-06 17:42:00,65.6,40.6,29.78,South,169,4.0,10.0,40,0.00,,,0.00,Wunderground v.1.15,2013-04-06 21:42:00,
2013-04-06 17:43:00,65.7,40.7,29.78,SSE,159,3.0,10.0,40,0.00,,,0.00,Wunderground v.1.15,2013-04-06 21:43:00,
2013-04-06 17:44:00,65.8,41.4,29.78,SSE,155,1.0,10.0,41,0.00,,,0.00,Wunderground v.1.15,2013-04-06 21:44:00,
2013-04-06 17:47:00,66.1,41.7,29.78,SSE,162,2.0,10.0,41,0.00,,,0.00,Wunderground v.1.15,2013-04-06 21:47:00,
2013-04-06 17:48:00,66.2,41.2,29.77,SSE,167,4.0,12.0,40,0.00,,,0.00,Wunderground v.1.15,2013-04-06 21:48:00,
2013-04-06 17:49:00,66.3,40.6,29.77,South,171,3.0,12.0,39,0.00,,,0.00,Wunderground v.1.15,2013-04-06 21:49:00,
2013-04-06 17:52:00,66.3,41.2,29.77,SE,134,5.0,6.0,40,0.00,,,0.00,Wunderground v.1.15,2013-04-06 21:52:00,
2013-04-06 17:53:00,66.3,41.2,29.76,SSE,163,3.0,9.0,40,0.00,,,0.00,Wunderground v.1.15,2013-04-06 21:53:00,
2013-04-06 17:55:00,66.3,40.6,29.77,SSE,163,6.0,9.0,39,0.00,,,0.00,Wunderground v.1.15,2013-04-06 21:55:00,
2013-04-06 17:58:00,66.3,40.6,29.77,South,188,6.0,13.0,39,0.00,,,0.00,Wunderground v.1.15,2013-04-06 21:58:00,
2013-04-06 18:00:00,66.3,40.6,29.77,South,186,4.0,6.0,39,0.00,,,0.00,Wunderground v.1.15,2013-04-06 22:00:00,
2013-04-06 18:03:00,66.4,41.3,29.77,SSE,156,10.0,12.0,40,0.00,,,0.00,Wunderground v.1.15,2013-04-06 22:03:00,
2013-04-06 18:04:00,66.6,41.5,29.77,SSE,168,5.0,12.0,40,0.00,,,0.00,Wunderground v.1.15,2013-04-06 22:04:00,
2013-04-06 18:05:00,66.9,41.8,29.77,South,177,4.0,12.0,40,0.00,,,0.00,Wunderground v.1.15,2013-04-06 22:05:00,
2013-04-06 18:08:00,67.5,42.3,29.77,SSE,167,2.0,12.0,40,0.00,,,0.00,Wunderground v.1.15,2013-04-06 22:08:00,
2013-04-06 18:09:00,67.9,42.0,29.76,SSW,198,11.0,12.0,39,0.00,,,0.00,Wunderground v.1.15,2013-04-06 22:09:00,
2013-04-06 18:10:00,67.9,41.3,29.76,SSW,210,10.0,10.0,38,0.00,,,0.00,Wunderground v.1.15,2013-04-06 22:10:00,
2013-04-06 18:14:00,68.7,42.7,29.76,South,188,6.0,12.0,39,0.00,,,0.00,Wunderground v.1.15,2013-04-06 22:14:00,
2013-04-06 18:15:00,69.0,42.3,29.76,SSW,207,10.0,12.0,38,0.00,,,0.00,Wunderground v.1.15,2013-04-06 22:15:00,
2013-04-06 18:19:00,69.7,42.3,29.76,South,175,9.0,16.0,37,0.00,,,0.00,Wunderground v.1.15,2013-04-06 22:19:00,
2013-04-06 18:20:00,69.7,42.3,29.76,SSE,161,10.0,10.0,37,0.00,,,0.00,Wunderground v.1.15,2013-04-06 22:20:00,
2013-04-06 18:21:00,69.8,42.3,29.76,South,178,10.0,10.0,37,0.00,,,0.00,Wunderground v.1.15,2013-04-06 22:21:00,
2013-04-06 18:22:00,69.9,43.1,29.76,South,171,4.0,10.0,38,0.00,,,0.00,Wunderground v.1.15,2013-04-06 22:22:00,
2013-04-06 18:25:00,69.9,41.7,29.76,SSE,167,3.0,12.0,36,0.00,,,0.00,Wunderground v.1.15,2013-04-06 22:25:00,
2013-04-06 18:27:00,69.8,41.6,29.76,SSW,200,0.0,16.0,36,0.00,,,0.00,Wunderground v.1.15,2013-04-06 22:27:00,
2013-04-06 18:30:00,69.3,41.2,29.76,SSW,192,8.0,10.0,36,0.00,,,0.00,Wunderground v.1.15,2013-04-06 22:30:00,
2013-04-06 18:32:00,69.0,40.9,29.76,South,180,6.0,11.0,36,0.00,,,0.00,Wunderground v.1.15,2013-04-06 22:32:00,
2013-04-06 18:35:00,68.5,41.2,29.77,South,186,3.0,11.0,37,0.00,,,0.00,Wunderground v.1.15,2013-04-06 22:35:00,
2013-04-06 18:36:00,68.4,41.1,29.77,SE,144,3.0,11.0,37,0.00,,,0.00,Wunderground v.1.15,2013-04-06 22:36:00,
2013-04-06 18:38:00,68.1,41.5,29.76,South,184,2.0,13.0,38,0.00,,,0.00,Wunderground v.1.15,2013-04-06 22:38:00,
2013-04-06 18:41:00,67.6,41.1,29.76,SSE,167,4.0,12.0,38,0.00,,,0.00,Wunderground v.1.15,2013-04-06 22:41:00,
2013-04-06 18:43:00,67.4,40.9,29.76,SE,143,10.0,12.0,38,0.00,,,0.00,Wunderground v.1.15,2013-04-06 22:43:00,
2013-04-06 18:47:00,67.0,41.2,29.77,South,173,0.0,12.0,39,0.00,,,0.00,Wunderground v.1.15,2013-04-06 22:47:00,
2013-04-06 18:48:00,66.9,41.8,29.77,SSE,163,4.0,12.0,40,0.00,,,0.00,Wunderground v.1.15,2013-04-06 22:48:00,
2013-04-06 18:52:00,66.6,40.9,29.77,South,180,3.0,9.0,39,0.00,,,0.00,Wunderground v.1.15,2013-04-06 22:52:00,
2013-04-06 18:54:00,66.6,40.9,29.77,South,179,1.0,9.0,39,0.00,,,0.00,Wunderground v.1.15,2013-04-06 22:54:00,
2013-04-06 18:55:00,66.5,41.4,29.77,SSE,168,3.0,11.0,40,0.00,,,0.00,Wunderground v.1.15,2013-04-06 22:55:00,
2013-04-06 18:57:00,66.3,41.2,29.77,South,187,11.0,11.0,40,0.00,,,0.00,Wunderground v.1.15,2013-04-06 22:57:00,
2013-04-06 19:00:00,66.1,41.1,29.76,SSW,195,5.0,5.0,40,0.00,,,0.00,Wunderground v.1.15,2013-04-06 23:00:00,
2013-04-06 19:02:00,66.0,41.6,29.76,South,183,3.0,6.0,41,0.00,,,0.00,Wunderground v.1.15,2013-04-06 23:02:00,
2013-04-06 19:05:00,65.8,40.8,29.76,SSW,198,2.0,11.0,40,0.00,,,0.00,Wunderground v.1.15,2013-04-06 23:05:00,
2013-04-06 19:07:00,65.8,41.4,29.76,SSE,155,1.0,11.0,41,0.00,,,0.00,Wunderground v.1.15,2013-04-06 23:07:00,
2013-04-06 19:08:00,65.7,41.3,29.76,SW,217,5.0,11.0,41,0.00,,,0.00,Wunderground v.1.15,2013-04-06 23:08:00,
2013-04-06 19:10:00,65.6,41.3,29.76,South,186,10.0,10.0,41,0.00,,,0.00,Wunderground v.1.15,2013-04-06 23:10:00,
2013-04-06 19:12:00,65.6,41.3,29.76,SSE,167,3.0,10.0,41,0.00,,,0.00,Wunderground v.1.15,2013-04-06 23:12:00,
2013-04-06 19:13:00,65.6,40.6,29.76,SSE,150,5.0,12.0,40,0.00,,,0.00,Wunderground v.1.15,2013-04-06 23:13:00,
2013-04-06 19:15:00,65.5,41.2,29.76,SSE,163,3.0,12.0,41,0.00,,,0.00,Wunderground v.1.15,2013-04-06 23:15:00,
2013-04-06 19:17:00,65.4,41.1,29.76,SE,146,4.0,12.0,41,0.00,,,0.00,Wunderground v.1.15,2013-04-06 23:17:00,
2013-04-06 19:19:00,65.4,41.1,29.75,SSE,167,4.0,12.0,41,0.00,,,0.00,Wunderground v.1.15,2013-04-06 23:19:00,
2013-04-06 19:20:00,65.4,41.1,29.75,SSE,161,3.0,6.0,41,0.00,,,0.00,Wunderground v.1.15,2013-04-06 23:20:00,
2013-04-06 19:23:00,65.2,40.9,29.75,SE,132,4.0,9.0,41,0.00,,,0.00,Wunderground v.1.15,2013-04-06 23:23:00,
2013-04-06 19:24:00,65.2,40.9,29.75,SW,215,4.0,10.0,41,0.00,,,0.00,Wunderground v.1.15,2013-04-06 23:24:00,
2013-04-06 19:25:00,65.2,40.9,29.75,SW,221,7.0,12.0,41,0.00,,,0.00,Wunderground v.1.15,2013-04-06 23:25:00,
2013-04-06 19:28:00,65.0,41.3,29.74,SSW,202,14.0,14.0,42,0.00,,,0.00,Wunderground v.1.15,2013-04-06 23:28:00,
2013-04-06 19:29:00,65.0,40.7,29.74,East,91,2.0,14.0,41,0.00,,,0.00,Wunderground v.1.15,2013-04-06 23:29:00,
2013-04-06 19:31:00,64.9,41.2,29.74,South,171,4.0,6.0,42,0.00,,,0.00,Wunderground v.1.15,2013-04-06 23:31:00,
2013-04-06 19:34:00,64.7,41.1,29.74,SSW,194,5.0,11.0,42,0.00,,,0.00,Wunderground v.1.15,2013-04-06 23:34:00,
2013-04-06 19:36:00,64.7,41.1,29.74,SSE,153,4.0,11.0,42,0.00,,,0.00,Wunderground v.1.15,2013-04-06 23:36:00,
2013-04-06 19:37:00,64.6,41.0,29.74,SSE,155,5.0,11.0,42,0.00,,,0.00,Wunderground v.1.15,2013-04-06 23:37:00,
2013-04-06 19:39:00,64.5,40.9,29.73,SSE,148,4.0,11.0,42,0.00,,,0.00,Wunderground v.1.15,2013-04-06 23:39:00,
2013-04-06 19:41:00,64.4,40.8,29.74,South,190,6.0,6.0,42,0.00,,,0.00,Wunderground v.1.15,2013-04-06 23:41:00,
2013-04-06 19:42:00,64.3,40.7,29.73,SSE,164,3.0,6.0,42,0.00,,,0.00,Wunderground v.1.15,2013-04-06 23:42:00,
2013-04-06 19:44:00,64.3,40.7,29.73,South,178,1.0,9.0,42,0.00,,,0.00,Wunderground v.1.15,2013-04-06 23:44:00,
2013-04-06 19:45:00,64.2,40.6,29.73,South,184,7.0,10.0,42,0.00,,,0.00,Wunderground v.1.15,2013-04-06 23:45:00,
2013-04-06 19:46:00,64.1,40.5,29.73,SE,146,3.0,10.0,42,0.00,,,0.00,Wunderground v.1.15,2013-04-06 23:46:00,
2013-04-06 19:48:00,64.1,40.5,29.73,South,180,4.0,12.0,42,0.00,,,0.00,Wunderground v.1.15,2013-04-06 23:48:00,
2013-04-06 19:50:00,64.0,40.4,29.73,SSW,193,7.0,7.0,42,0.00,,,0.00,Wunderground v.1.15,2013-04-06 23:50:00,
2013-04-06 19:51:00,63.9,40.3,29.73,South,180,6.0,14.0,42,0.00,,,0.00,Wunderground v.1.15,2013-04-06 23:51:00,
2013-04-06 19:55:00,63.8,40.3,29.74,South,180,2.0,14.0,42,0.00,,,0.00,Wunderground v.1.15,2013-04-06 23:55:00,
2013-04-06 19:57:00,63.8,40.3,29.73,South,169,3.0,14.0,42,0.00,,,0.00,Wunderground v.1.15,2013-04-06 23:57:00,
2013-04-06 20:00:00,63.6,40.1,29.73,SSW,199,3.0,8.0,42,0.00,,,0.00,Wunderground v.1.15,2013-04-07 00:00:00,
2013-04-06 20:01:00,63.6,40.1,29.73,SSE,148,3.0,8.0,42,0.00,,,0.00,Wunderground v.1.15,2013-04-07 00:01:00,
2013-04-06 20:02:00,63.6,40.7,29.73,South,177,4.0,8.0,43,0.00,,,0.00,Wunderground v.1.15,2013-04-07 00:02:00,
2013-04-06 20:05:00,63.4,40.5,29.73,SW,215,10.0,10.0,43,0.00,,,0.00,Wunderground v.1.15,2013-04-07 00:05:00,
2013-04-06 20:06:00,63.4,40.5,29.73,South,176,6.0,10.0,43,0.00,,,0.00,Wunderground v.1.15,2013-04-07 00:06:00,
2013-04-06 20:07:00,63.4,40.5,29.73,SSW,193,2.0,10.0,43,0.00,,,0.00,Wunderground v.1.15,2013-04-07 00:07:00,
2013-04-06 20:11:00,63.2,40.3,29.73,South,171,1.0,7.0,43,0.00,,,0.00,Wunderground v.1.15,2013-04-07 00:11:00,
2013-04-06 20:12:00,63.1,40.2,29.73,SSW,196,1.0,7.0,43,0.00,,,0.00,Wunderground v.1.15,2013-04-07 00:12:00,
2013-04-06 20:14:00,63.1,40.2,29.73,SE,138,4.0,10.0,43,0.00,,,0.00,Wunderground v.1.15,2013-04-07 00:14:00,
2013-04-06 20:16:00,63.0,40.1,29.73,South,187,4.0,10.0,43,0.00,,,0.00,Wunderground v.1.15,2013-04-07 00:16:00,
2013-04-06 20:18:00,62.9,40.6,29.73,South,186,3.0,14.0,44,0.00,,,0.00,Wunderground v.1.15,2013-04-07 00:18:00,
2013-04-06 20:19:00,62.9,40.0,29.73,SSW,194,7.0,14.0,43,0.00,,,0.00,Wunderground v.1.15,2013-04-07 00:19:00,
2013-04-06 20:21:00,62.8,40.5,29.73,SSW,198,6.0,7.0,44,0.00,,,0.00,Wunderground v.1.15,2013-04-07 00:21:00,
2013-04-06 20:22:00,62.8,40.0,29.73,South,190,4.0,7.0,43,0.00,,,0.00,Wunderground v.1.15,2013-04-07 00:22:00,
2013-04-06 20:23:00,62.7,40.5,29.73,South,171,5.0,8.0,44,0.00,,,0.00,Wunderground v.1.15,2013-04-07 00:23:00,
2013-04-06 20:25:00,62.7,40.5,29.73,South,188,2.0,10.0,44,0.00,,,0.00,Wunderground v.1.15,2013-04-07 00:25:00,
2013-04-06 20:27:00,62.6,40.4,29.72,South,169,4.0,10.0,44,0.00,,,0.00,Wunderground v.1.15,2013-04-07 00:27:00,
2013-04-06 20:28:00,62.6,40.4,29.72,SSW,201,7.0,11.0,44,0.00,,,0.00,Wunderground v.1.15,2013-04-07 00:28:00,
2013-04-06 20:30:00,62.5,40.3,29.72,SSW,197,9.0,10.0,44,0.00,,,0.00,Wunderground v.1.15,2013-04-07 00:30:00,
2013-04-06 20:32:00,62.5,40.3,29.71,SSW,196,5.0,10.0,44,0.00,,,0.00,Wunderground v.1.15,2013-04-07 00:32:00,
2013-04-06 20:33:00,62.4,40.2,29.71,SSE,168,7.0,10.0,44,0.00,,,0.00,Wunderground v.1.15,2013-04-07 00:33:00,
2013-04-06 20:35:00,62.4,40.8,29.71,South,175,7.0,10.0,45,0.00,,,0.00,Wunderground v.1.15,2013-04-07 00:35:00,
2013-04-06 20:38:00,62.2,42.3,29.71,SSE,157,10.0,12.0,48,0.00,,,0.00,Wunderground v.1.15,2013-04-07 00:38:00,
2013-04-06 20:39:00,62.1,42.2,29.70,SSE,163,11.0,12.0,48,0.00,,,0.00,Wunderground v.1.15,2013-04-07 00:39:00,
2013-04-06 20:40:00,62.0,42.1,29.70,SSE,163,3.0,8.0,48,0.00,,,0.00,Wunderground v.1.15,2013-04-07 00:40:00,
2013-04-06 20:43:00,61.8,41.9,29.71,South,179,4.0,8.0,48,0.00,,,0.00,Wunderground v.1.15,2013-04-07 00:43:00,
2013-04-06 20:44:00,61.7,41.8,29.70,ESE,102,3.0,8.0,48,0.00,,,0.00,Wunderground v.1.15,2013-04-07 00:44:00,
2013-04-06 20:45:00,61.6,41.2,29.70,SSE,165,4.0,13.0,47,0.00,,,0.00,Wunderground v.1.15,2013-04-07 00:45:00,
2013-04-06 20:48:00,61.4,41.0,29.70,South,179,4.0,13.0,47,0.00,,,0.00,Wunderground v.1.15,2013-04-07 00:48:00,
2013-04-06 20:50:00,61.4,41.0,29.70,ENE,69,9.0,9.0,47,0.00,,,0.00,Wunderground v.1.15,2013-04-07 00:50:00,
2013-04-06 20:51:00,61.3,40.9,29.70,SSE,155,5.0,9.0,47,0.00,,,0.00,Wunderground v.1.15,2013-04-07 00:51:00,
2013-04-06 20:54:00,61.2,40.2,29.70,South,190,4.0,9.0,46,0.00,,,0.00,Wunderground v.1.15,2013-04-07 00:54:00,
2013-04-06 20:55:00,61.1,40.1,29.70,SSE,155,2.0,9.0,46,0.00,,,0.00,Wunderground v.1.15,2013-04-07 00:55:00,
2013-04-06 20:56:00,61.1,40.1,29.70,South,173,4.0,9.0,46,0.00,,,0.00,Wunderground v.1.15,2013-04-07 00:56:00,
2013-04-06 20:59:00,61.0,40.1,29.70,SE,142,5.0,12.0,46,0.00,,,0.00,Wunderground v.1.15,2013-04-07 00:59:00,
2013-04-06 21:01:00,60.9,40.0,29.71,SSE,154,11.0,11.0,46,0.00,,,0.00,Wunderground v.1.15,2013-04-07 01:01:00,
2013-04-06 21:02:00,60.9,40.0,29.71,SSE,168,7.0,11.0,46,0.00,,,0.00,Wunderground v.1.15,2013-04-07 01:02:00,
2013-04-06 21:04:00,61.0,40.1,29.71,SW,227,5.0,11.0,46,0.00,,,0.00,Wunderground v.1.15,2013-04-07 01:04:00,
2013-04-06 21:07:00,61.0,40.1,29.71,SSE,165,8.0,11.0,46,0.00,,,0.00,Wunderground v.1.15,2013-04-07 01:07:00,
2013-04-06 21:10:00,61.1,40.1,29.71,South,191,4.0,12.0,46,0.00,,,0.00,Wunderground v.1.15,2013-04-07 01:10:00,
2013-04-06 21:12:00,61.1,40.1,29.71,SSE,164,2.0,11.0,46,0.00,,,0.00,Wunderground v.1.15,2013-04-07 01:12:00,
2013-04-06 21:14:00,61.1,40.1,29.71,SSE,154,6.0,11.0,46,0.00,,,0.00,Wunderground v.1.15,2013-04-07 01:14:00,
2013-04-06 21:15:00,61.2,40.2,29.71,South,188,13.0,13.0,46,0.00,,,0.00,Wunderground v.1.15,2013-04-07 01:15:00,
2013-04-06 21:17:00,61.2,40.2,29.71,South,169,4.0,14.0,46,0.00,,,0.00,Wunderground v.1.15,2013-04-07 01:17:00,
2013-04-06 21:19:00,61.2,40.2,29.71,South,173,3.0,14.0,46,0.00,,,0.00,Wunderground v.1.15,2013-04-07 01:19:00,
2013-04-06 21:21:00,61.2,40.2,29.72,SW,232,3.0,6.0,46,0.00,,,0.00,Wunderground v.1.15,2013-04-07 01:21:00,
2013-04-06 21:22:00,61.2,40.2,29.71,SSE,153,1.0,7.0,46,0.00,,,0.00,Wunderground v.1.15,2013-04-07 01:22:00,
2013-04-06 21:24:00,61.2,40.2,29.72,SW,217,1.0,9.0,46,0.00,,,0.00,Wunderground v.1.15,2013-04-07 01:24:00,
2013-04-06 21:26:00,61.2,40.2,29.72,SSE,164,2.0,9.0,46,0.00,,,0.00,Wunderground v.1.15,2013-04-07 01:26:00,
2013-04-06 21:28:00,61.2,40.2,29.72,South,191,7.0,9.0,46,0.00,,,0.00,Wunderground v.1.15,2013-04-07 01:28:00,
2013-04-06 21:29:00,61.2,40.2,29.71,South,179,4.0,9.0,46,0.00,,,0.00,Wunderground v.1.15,2013-04-07 01:29:00,
2013-04-06 21:32:00,61.2,40.2,29.71,South,188,4.0,13.0,46,0.00,,,0.00,Wunderground v.1.15,2013-04-07 01:32:00,
2013-04-06 21:33:00,61.2,40.2,29.71,SSW,198,5.0,13.0,46,0.00,,,0.00,Wunderground v.1.15,2013-04-07 01:33:00,
2013-04-06 21:35:00,61.2,40.2,29.71,SSE,161,5.0,13.0,46,0.00,,,0.00,Wunderground v.1.15,2013-04-07 01:35:00,
2013-04-06 21:37:00,61.1,40.1,29.72,South,188,3.0,13.0,46,0.00,,,0.00,Wunderground v.1.15,2013-04-07 01:37:00,
2013-04-06 21:38:00,61.1,40.1,29.72,South,171,2.0,13.0,46,0.00,,,0.00,Wunderground v.1.15,2013-04-07 01:38:00,
2013-04-06 21:39:00,61.1,40.7,29.72,SSE,160,11.0,13.0,47,0.00,,,0.00,Wunderground v.1.15,2013-04-07 01:39:00,
2013-04-06 21:41:00,61.1,41.8,29.72,South,180,2.0,12.0,49,0.00,,,0.00,Wunderground v.1.15,2013-04-07 01:41:00,
2013-04-06 21:42:00,61.0,42.2,29.72,SSW,200,5.0,12.0,50,0.00,,,0.00,Wunderground v.1.15,2013-04-07 01:42:00,
2013-04-06 21:43:00,60.9,43.1,29.73,South,175,7.0,12.0,52,0.00,,,0.00,Wunderground v.1.15,2013-04-07 01:43:00,
2013-04-06 21:44:00,60.9,43.1,29.73,SE,134,5.0,12.0,52,0.00,,,0.00,Wunderground v.1.15,2013-04-07 01:44:00,
2013-04-06 21:46:00,60.7,42.5,29.72,SSW,197,8.0,13.0,51,0.00,,,0.00,Wunderground v.1.15,2013-04-07 01:46:00,
2013-04-06 21:47:00,60.5,42.3,29.72,SW,218,4.0,13.0,51,0.00,,,0.00,Wunderground v.1.15,2013-04-07 01:47:00,
2013-04-06 21:48:00,60.5,41.8,29.72,South,176,3.0,13.0,50,0.00,,,0.00,Wunderground v.1.15,2013-04-07 01:48:00,
2013-04-06 21:49:00,60.4,41.7,29.72,SSE,156,3.0,13.0,50,0.00,,,0.00,Wunderground v.1.15,2013-04-07 01:49:00,
2013-04-06 21:51:00,60.3,43.6,29.72,South,176,4.0,10.0,54,0.00,,,0.00,Wunderground v.1.15,2013-04-07 01:51:00,
2013-04-06 21:53:00,60.2,44.0,29.72,SSW,213,4.0,10.0,55,0.00,,,0.00,Wunderground v.1.15,2013-04-07 01:53:00,
2013-04-06 21:54:00,60.1,44.3,29.72,SSE,165,2.0,10.0,56,0.00,,,0.00,Wunderground v.1.15,2013-04-07 01:54:00,
2013-04-06 21:57:00,59.8,44.5,29.72,South,184,9.0,11.0,57,0.00,,,0.00,Wunderground v.1.15,2013-04-07 01:57:00,
2013-04-06 21:58:00,59.7,44.4,29.72,SW,217,5.0,11.0,57,0.00,,,0.00,Wunderground v.1.15,2013-04-07 01:58:00,
2013-04-06 21:59:00,59.6,44.8,29.72,SSW,202,4.0,11.0,58,0.00,,,0.00,Wunderground v.1.15,2013-04-07 01:59:00,
2013-04-06 22:02:00,59.2,44.9,29.72,SSW,211,7.0,12.0,59,0.00,,,0.00,Wunderground v.1.15,2013-04-07 02:02:00,
2013-04-06 22:04:00,59.0,44.2,29.72,SSW,192,2.0,12.0,58,0.00,,,0.00,Wunderground v.1.15,2013-04-07 02:04:00,
2013-04-06 22:05:00,59.0,44.2,29.72,South,176,3.0,12.0,58,0.00,,,0.00,Wunderground v.1.15,2013-04-07 02:05:00,
2013-04-06 22:08:00,59.0,44.2,29.72,South,176,3.0,12.0,58,0.00,,,0.00,Wunderground v.1.15,2013-04-07 02:08:00,
2013-04-06 22:09:00,58.9,44.6,29.72,SSE,161,4.0,12.0,59,0.00,,,0.00,Wunderground v.1.15,2013-04-07 02:09:00,
2013-04-06 22:11:00,58.7,44.4,29.72,South,175,4.0,4.0,59,0.00,,,0.00,Wunderground v.1.15,2013-04-07 02:11:00,
2013-04-06 22:13:00,58.5,44.2,29.72,SSE,157,3.0,7.0,59,0.00,,,0.00,Wunderground v.1.15,2013-04-07 02:13:00,
2013-04-06 22:14:00,58.4,44.6,29.72,SSE,156,3.0,7.0,60,0.00,,,0.00,Wunderground v.1.15,2013-04-07 02:14:00,
2013-04-06 22:16:00,58.4,44.1,29.71,South,182,4.0,7.0,59,0.00,,,0.00,Wunderground v.1.15,2013-04-07 02:16:00,
2013-04-06 22:19:00,58.2,43.9,29.71,South,182,2.0,7.0,59,0.00,,,0.00,Wunderground v.1.15,2013-04-07 02:19:00,
2013-04-06 22:20:00,58.1,43.8,29.71,SSE,164,0.0,4.0,59,0.00,,,0.00,Wunderground v.1.15,2013-04-07 02:20:00,
2013-04-06 22:22:00,58.1,43.4,29.71,SSE,161,2.0,12.0,58,0.00,,,0.00,Wunderground v.1.15,2013-04-07 02:22:00,
2013-04-06 22:25:00,58.0,44.2,29.71,SSW,209,7.0,12.0,60,0.00,,,0.00,Wunderground v.1.15,2013-04-07 02:25:00,
2013-04-06 22:27:00,57.9,44.1,29.70,South,178,2.0,12.0,60,0.00,,,0.00,Wunderground v.1.15,2013-04-07 02:27:00,
2013-04-06 22:30:00,57.9,43.7,29.71,SSW,193,4.0,4.0,59,0.00,,,0.00,Wunderground v.1.15,2013-04-07 02:30:00,
2013-04-06 22:32:00,58.0,43.3,29.71,South,188,9.0,11.0,58,0.00,,,0.00,Wunderground v.1.15,2013-04-07 02:32:00,
2013-04-06 22:35:00,58.2,43.9,29.71,South,183,2.0,11.0,59,0.00,,,0.00,Wunderground v.1.15,2013-04-07 02:35:00,
2013-04-06 22:36:00,58.2,43.9,29.71,SSE,148,4.0,11.0,59,0.00,,,0.00,Wunderground v.1.15,2013-04-07 02:36:00,
2013-04-06 22:37:00,58.2,44.4,29.71,South,183,5.0,11.0,60,0.00,,,0.00,Wunderground v.1.15,2013-04-07 02:37:00,
2013-04-06 22:42:00,58.5,44.2,29.70,South,188,7.0,12.0,59,0.00,,,0.00,Wunderground v.1.15,2013-04-07 02:42:00,
2013-04-06 22:47:00,59.0,43.8,29.70,South,185,1.0,12.0,57,0.00,,,0.00,Wunderground v.1.15,2013-04-07 02:47:00,
2013-04-06 22:48:00,59.0,43.8,29.70,SSW,207,6.0,12.0,57,0.00,,,0.00,Wunderground v.1.15,2013-04-07 02:48:00,
2013-04-06 22:52:00,59.3,44.1,29.70,WSW,243,9.0,18.0,57,0.00,,,0.00,Wunderground v.1.15,2013-04-07 02:52:00,
2013-04-06 22:53:00,59.4,44.2,29.70,South,175,12.0,18.0,57,0.00,,,0.00,Wunderground v.1.15,2013-04-07 02:53:00,
2013-04-06 22:54:00,59.5,43.8,29.70,SE,146,7.0,18.0,56,0.00,,,0.00,Wunderground v.1.15,2013-04-07 02:54:00,
2013-04-06 22:57:00,59.9,43.7,29.70,WSW,242,3.0,18.0,55,0.00,,,0.00,Wunderground v.1.15,2013-04-07 02:57:00,
2013-04-06 22:58:00,60.0,43.8,29.70,WSW,254,1.0,18.0,55,0.00,,,0.00,Wunderground v.1.15,2013-04-07 02:58:00,
2013-04-06 23:00:00,60.2,43.5,29.70,SSW,199,14.0,14.0,54,0.00,,,0.00,Wunderground v.1.15,2013-04-07 03:00:00,
2013-04-06 23:02:00,60.6,43.9,29.69,SSW,196,10.0,14.0,54,0.00,,,0.00,Wunderground v.1.15,2013-04-07 03:02:00,
2013-04-06 23:03:00,60.6,43.9,29.69,SW,229,9.0,14.0,54,0.00,,,0.00,Wunderground v.1.15,2013-04-07 03:03:00,
2013-04-06 23:05:00,60.9,43.6,29.69,SSW,203,2.0,14.0,53,0.00,,,0.00,Wunderground v.1.15,2013-04-07 03:05:00,
2013-04-06 23:07:00,61.2,43.4,29.69,South,188,13.0,15.0,52,0.00,,,0.00,Wunderground v.1.15,2013-04-07 03:07:00,
2013-04-06 23:08:00,61.3,43.5,29.69,SW,229,7.0,15.0,52,0.00,,,0.00,Wunderground v.1.15,2013-04-07 03:08:00,
2013-04-06 23:09:00,61.3,43.5,29.69,South,181,7.0,15.0,52,0.00,,,0.00,Wunderground v.1.15,2013-04-07 03:09:00,
2013-04-06 23:10:00,61.4,43.6,29.69,South,173,5.0,9.0,52,0.00,,,0.00,Wunderground v.1.15,2013-04-07 03:10:00,
2013-04-06 23:14:00,61.6,44.3,29.68,South,187,14.0,15.0,53,0.00,,,0.00,Wunderground v.1.15,2013-04-07 03:14:00,
2013-04-06 23:15:00,61.6,43.8,29.68,WSW,244,5.0,15.0,52,0.00,,,0.00,Wunderground v.1.15,2013-04-07 03:15:00,
2013-04-06 23:19:00,61.7,43.9,29.68,SW,217,4.0,17.0,52,0.00,,,0.00,Wunderground v.1.15,2013-04-07 03:19:00,
2013-04-06 23:20:00,61.7,44.4,29.68,SE,144,3.0,7.0,53,0.00,,,0.00,Wunderground v.1.15,2013-04-07 03:20:00,
2013-04-06 23:22:00,61.7,44.4,29.68,SSW,193,4.0,17.0,53,0.00,,,0.00,Wunderground v.1.15,2013-04-07 03:22:00,
2013-04-06 23:24:00,61.7,43.9,29.68,SSE,165,2.0,17.0,52,0.00,,,0.00,Wunderground v.1.15,2013-04-07 03:24:00,
2013-04-06 23:25:00,61.6,44.3,29.67,South,182,5.0,17.0,53,0.00,,,0.00,Wunderground v.1.15,2013-04-07 03:25:00,
2013-04-06 23:27:00,61.6,43.8,29.67,South,186,16.0,22.0,52,0.00,,,0.00,Wunderground v.1.15,2013-04-07 03:27:00,
2013-04-06 23:30:00,61.5,44.2,29.67,South,179,9.0,9.0,53,0.00,,,0.00,Wunderground v.1.15,2013-04-07 03:30:00,
2013-04-06 23:31:00,61.5,44.2,29.67,WSW,253,6.0,16.0,53,0.00,,,0.00,Wunderground v.1.15,2013-04-07 03:31:00,
2013-04-06 23:33:00,61.4,44.1,29.67,SSW,192,9.0,16.0,53,0.00,,,0.00,Wunderground v.1.15,2013-04-07 03:33:00,
2013-04-06 23:35:00,61.4,44.1,29.67,South,180,11.0,16.0,53,0.00,,,0.00,Wunderground v.1.15,2013-04-07 03:35:00,
2013-04-06 23:36:00,61.4,44.1,29.67,SSW,194,5.0,16.0,53,0.00,,,0.00,Wunderground v.1.15,2013-04-07 03:36:00,
2013-04-06 23:37:00,61.4,44.1,29.67,SSW,210,10.0,16.0,53,0.00,,,0.00,Wunderground v.1.15,2013-04-07 03:37:00,
2013-04-06 23:39:00,61.4,44.1,29.67,South,190,2.0,16.0,53,0.00,,,0.00,Wunderground v.1.15,2013-04-07 03:39:00,
2013-04-06 23:40:00,61.4,44.1,29.67,SE,127,4.0,8.0,53,0.00,,,0.00,Wunderground v.1.15,2013-04-07 03:40:00,
2013-04-06 23:41:00,61.4,44.1,29.67,SSW,204,3.0,13.0,53,0.00,,,0.00,Wunderground v.1.15,2013-04-07 03:41:00,
2013-04-06 23:42:00,61.3,44.0,29.67,SSW,194,4.0,13.0,53,0.00,,,0.00,Wunderground v.1.15,2013-04-07 03:42:00,
2013-04-06 23:44:00,61.3,44.0,29.67,SW,233,3.0,13.0,53,0.00,,,0.00,Wunderground v.1.15,2013-04-07 03:44:00,
2013-04-06 23:46:00,61.3,44.5,29.67,SW,215,3.0,13.0,54,0.00,,,0.00,Wunderground v.1.15,2013-04-07 03:46:00,
2013-04-06 23:47:00,61.3,44.0,29.67,SSW,208,5.0,13.0,53,0.00,,,0.00,Wunderground v.1.15,2013-04-07 03:47:00,
2013-04-06 23:49:00,61.3,44.5,29.67,SSE,163,1.0,13.0,54,0.00,,,0.00,Wunderground v.1.15,2013-04-07 03:49:00,
2013-04-06 23:52:00,61.3,44.5,29.67,South,190,12.0,14.0,54,0.00,,,0.00,Wunderground v.1.15,2013-04-07 03:52:00,
2013-04-06 23:53:00,61.2,44.4,29.66,South,180,7.0,17.0,54,0.00,,,0.00,Wunderground v.1.15,2013-04-07 03:53:00,
2013-04-06 23:54:00,61.2,44.4,29.66,WNW,297,11.0,17.0,54,0.00,,,0.00,Wunderground v.1.15,2013-04-07 03:54:00,
2013-04-06 23:55:00,61.3,44.5,29.66,SSE,168,4.0,17.0,54,0.00,,,0.00,Wunderground v.1.15,2013-04-07 03:55:00,
2013-04-06 23:57:00,61.3,44.5,29.66,South,184,3.0,17.0,54,0.00,,,0.00,Wunderground v.1.15,2013-04-07 03:57:00,
2013-04-06 23:58:00,61.3,44.5,29.66,SSW,205,6.0,17.0,54,0.00,,,0.00,Wunderground v.1.15,2013-04-07 03:58:00,
2013-04-06 23:59:00,61.3,44.5,29.66,ESE,111,3.0,17.0,54,0.00,,,0.00,Wunderground v.1.15,2013-04-07 03:59:00,